GFSFLT2_prec_precacc_069.txt.gz
Total_Precipitation_Accumulation
0.08 0.11 0.11 0.10 0.08 0.09 0.08 0.05 0.04 0.05 0.08 0.10 0.13 0.15 0.15 0.15 0.18 0.21 0.29 0.38 0.47 0.56 0.69 0.84 1.03 1.10 1.04
0.11 0.14 0.12 0.11 0.10 0.12 0.12 0.13 0.14 0.12 0.13 0.12 0.14 0.18 0.22 0.23 0.23 0.25 0.24 0.27 0.35 0.48 0.58 0.64 0.72 0.85 1.00
0.22 0.14 0.10 0.12 0.16 0.20 0.20 0.19 0.18 0.22 0.27 0.26 0.28 0.32 0.36 0.37 0.37 0.43 0.51 0.54 0.54 0.51 0.55 0.65 0.77 0.89 0.93
0.39 0.28 0.21 0.19 0.26 0.28 0.25 0.26 0.29 0.30 0.33 0.32 0.31 0.31 0.32 0.37 0.43 0.45 0.46 0.48 0.54 0.62 0.69 0.71 0.72 0.77 0.85
0.66 0.60 0.56 0.44 0.39 0.40 0.46 0.38 0.32 0.25 0.21 0.22 0.27 0.32 0.33 0.35 0.40 0.37 0.41 0.51 0.60 0.65 0.67 0.77 0.84 0.89 0.89
0.94 0.72 0.45 0.41 0.38 0.45 0.59 0.71 0.63 0.29 0.28 0.36 0.40 0.47 0.46 0.46 0.45 0.43 0.44 0.46 0.50 0.55 0.65 0.69 0.70 0.75 0.84
0.51 0.43 0.40 0.36 0.53 0.66 0.66 0.76 0.64 0.34 0.40 0.48 0.38 0.40 0.41 0.46 0.54 0.47 0.48 0.48 0.49 0.52 0.55 0.58 0.58 0.64 0.70
0.33 0.36 0.46 0.57 0.82 1.11 1.09 0.98 0.69 0.45 0.42 0.56 0.31 0.35 0.37 0.44 0.57 0.47 0.40 0.42 0.46 0.48 0.50 0.52 0.57 0.63 0.62
0.39 0.45 0.43 0.38 0.41 0.77 0.90 0.82 0.71 0.39 0.31 0.43 0.36 0.37 0.41 0.39 0.45 0.46 0.42 0.45 0.51 0.53 0.53 0.59 0.62 0.65 0.64
0.35 0.39 0.39 0.38 0.44 0.50 0.95 1.63 1.13 0.89 0.38 0.81 0.64 0.54 0.87 0.38 0.39 0.53 0.49 0.43 0.42 0.41 0.40 0.41 0.47 0.49 0.53
0.32 0.37 0.39 0.40 0.45 0.61 0.98 1.81 2.05 1.45 0.56 1.35 1.42 0.62 0.98 0.56 0.41 0.50 0.42 0.45 0.47 0.45 0.41 0.39 0.37 0.40 0.60
0.47 0.52 0.51 0.52 0.59 0.66 0.72 0.85 1.04 1.41 0.85 1.06 1.87 0.93 1.16 0.81 0.52 0.55 0.54 0.49 0.53 0.46 0.39 0.44 0.53 0.59 0.62
0.81 0.82 0.75 0.80 0.84 0.76 0.68 0.64 0.68 0.74 0.86 0.87 1.19 1.05 1.07 0.96 0.72 0.52 0.68 0.70 0.76 0.81 0.64 0.47 0.42 0.43 0.57
0.68 0.61 0.70 0.74 0.73 0.84 1.06 0.96 1.03 0.84 0.70 0.63 0.77 0.92 0.87 0.55 0.82 0.70 0.60 1.06 1.04 1.09 1.04 0.61 0.49 0.40 0.31
0.56 0.62 0.72 0.81 0.83 0.93 1.20 1.15 0.99 0.76 0.62 0.47 0.39 0.39 0.46 0.58 0.64 0.64 0.87 0.84 1.10 1.48 1.26 0.83 0.69 0.55 0.42
0.62 0.68 0.84 0.92 1.09 1.21 1.22 1.02 0.82 0.60 0.53 0.42 0.36 0.33 0.31 0.29 0.60 0.91 0.80 0.89 1.18 1.36 1.35 0.75 0.75 0.81 0.63
0.92 0.93 0.99 1.07 1.13 1.15 0.94 0.70 0.50 0.36 0.21 0.16 0.33 0.52 0.56 0.28 0.29 0.70 1.19 1.06 0.82 0.87 0.91 0.63 0.70 0.88 0.69

GFSFLT2_prec_precacc_072.txt.gz
Total_Precipitation_Accumulation
0.18 0.16 0.13 0.11 0.08 0.09 0.08 0.05 0.04 0.05 0.08 0.10 0.13 0.15 0.15 0.15 0.18 0.21 0.29 0.38 0.47 0.56 0.70 0.86 1.06 1.13 1.07
0.13 0.14 0.12 0.11 0.11 0.12 0.12 0.13 0.14 0.12 0.13 0.12 0.14 0.18 0.22 0.23 0.23 0.25 0.24 0.28 0.36 0.49 0.58 0.64 0.72 0.86 1.01
0.22 0.15 0.10 0.12 0.16 0.20 0.20 0.19 0.18 0.22 0.27 0.26 0.28 0.32 0.36 0.37 0.37 0.43 0.51 0.54 0.54 0.51 0.55 0.66 0.77 0.89 0.93
0.40 0.28 0.21 0.19 0.26 0.28 0.25 0.26 0.29 0.30 0.33 0.32 0.31 0.31 0.32 0.37 0.43 0.45 0.46 0.48 0.54 0.62 0.69 0.71 0.72 0.77 0.86
0.66 0.60 0.56 0.44 0.39 0.40 0.46 0.38 0.32 0.25 0.21 0.22 0.27 0.32 0.33 0.35 0.40 0.37 0.41 0.51 0.60 0.65 0.68 0.78 0.85 0.91 0.91
0.94 0.72 0.45 0.41 0.38 0.45 0.59 0.71 0.63 0.29 0.28 0.36 0.40 0.47 0.46 0.46 0.45 0.43 0.44 0.46 0.50 0.56 0.65 0.69 0.71 0.76 0.86
0.51 0.43 0.40 0.36 0.53 0.66 0.66 0.76 0.64 0.34 0.40 0.48 0.38 0.40 0.41 0.46 0.54 0.47 0.48 0.48 0.49 0.52 0.55 0.59 0.59 0.65 0.73
0.33 0.36 0.46 0.57 0.82 1.11 1.09 0.99 0.69 0.45 0.42 0.56 0.31 0.35 0.37 0.44 0.57 0.47 0.40 0.42 0.46 0.49 0.50 0.52 0.58 0.64 0.63
0.39 0.45 0.43 0.38 0.41 0.77 0.90 0.82 0.72 0.39 0.31 0.43 0.36 0.37 0.41 0.39 0.45 0.46 0.42 0.45 0.51 0.53 0.53 0.59 0.63 0.65 0.64
0.35 0.39 0.39 0.38 0.44 0.50 0.95 1.63 1.13 0.90 0.38 0.82 0.65 0.55 0.88 0.38 0.39 0.53 0.49 0.43 0.42 0.41 0.40 0.41 0.47 0.49 0.53
0.32 0.37 0.39 0.40 0.45 0.61 0.98 1.82 2.06 1.46 0.56 1.38 1.44 0.62 0.99 0.57 0.41 0.50 0.42 0.45 0.47 0.45 0.41 0.39 0.37 0.40 0.61
0.47 0.52 0.51 0.52 0.59 0.66 0.72 0.85 1.04 1.41 0.85 1.07 1.89 0.93 1.17 0.82 0.52 0.55 0.54 0.49 0.53 0.46 0.39 0.44 0.53 0.59 0.62
0.81 0.82 0.75 0.80 0.84 0.76 0.68 0.64 0.68 0.74 0.86 0.87 1.19 1.06 1.09 0.97 0.73 0.52 0.68 0.70 0.76 0.81 0.64 0.47 0.42 0.43 0.57
0.68 0.61 0.70 0.74 0.73 0.84 1.06 0.96 1.04 0.84 0.70 0.63 0.77 0.92 0.88 0.56 0.83 0.70 0.60 1.06 1.04 1.09 1.04 0.62 0.49 0.40 0.31
0.57 0.62 0.72 0.81 0.83 0.93 1.21 1.16 1.00 0.76 0.62 0.47 0.39 0.40 0.47 0.58 0.65 0.64 0.87 0.84 1.10 1.48 1.26 0.84 0.69 0.55 0.42
0.62 0.68 0.84 0.92 1.10 1.21 1.23 1.03 0.83 0.61 0.53 0.42 0.36 0.34 0.31 0.30 0.60 0.91 0.80 0.90 1.18 1.36 1.36 0.77 0.75 0.81 0.63
0.92 0.94 1.00 1.07 1.13 1.15 0.94 0.70 0.51 0.36 0.21 0.16 0.33 0.54 0.58 0.28 0.29 0.70 1.20 1.06 0.83 0.88 0.91 0.63 0.71 0.88 0.69

GFSFLT2_prec_precacc_075.txt.gz
Total_Precipitation_Accumulation
0.29 0.29 0.23 0.16 0.10 0.10 0.08 0.05 0.04 0.05 0.08 0.10 0.13 0.15 0.15 0.15 0.18 0.21 0.29 0.38 0.47 0.56 0.71 0.87 1.07 1.14 1.09
0.15 0.16 0.12 0.11 0.11 0.12 0.12 0.13 0.14 0.12 0.13 0.12 0.14 0.18 0.22 0.23 0.23 0.25 0.24 0.28 0.36 0.49 0.58 0.64 0.72 0.86 1.01
0.22 0.15 0.10 0.12 0.16 0.20 0.20 0.19 0.18 0.22 0.27 0.26 0.28 0.32 0.36 0.37 0.37 0.43 0.51 0.54 0.54 0.51 0.55 0.66 0.77 0.89 0.93
0.40 0.28 0.21 0.19 0.26 0.28 0.25 0.26 0.29 0.30 0.33 0.32 0.31 0.31 0.32 0.37 0.43 0.45 0.46 0.48 0.54 0.62 0.69 0.71 0.72 0.77 0.86
0.66 0.60 0.56 0.44 0.39 0.40 0.46 0.38 0.32 0.25 0.21 0.22 0.27 0.32 0.33 0.35 0.40 0.37 0.41 0.51 0.60 0.65 0.68 0.78 0.85 0.91 0.91
0.94 0.72 0.45 0.41 0.38 0.45 0.59 0.71 0.63 0.29 0.28 0.36 0.40 0.47 0.46 0.46 0.45 0.43 0.44 0.46 0.50 0.56 0.65 0.69 0.71 0.77 0.86
0.51 0.43 0.40 0.36 0.53 0.66 0.66 0.76 0.64 0.34 0.40 0.48 0.38 0.40 0.41 0.46 0.54 0.47 0.48 0.48 0.49 0.52 0.55 0.59 0.59 0.65 0.73
0.33 0.36 0.46 0.57 0.82 1.12 1.09 0.99 0.69 0.45 0.42 0.56 0.31 0.35 0.37 0.44 0.57 0.47 0.40 0.42 0.46 0.49 0.50 0.53 0.58 0.64 0.63
0.39 0.45 0.43 0.38 0.41 0.77 0.90 0.83 0.72 0.39 0.31 0.43 0.36 0.37 0.41 0.39 0.45 0.46 0.42 0.45 0.51 0.53 0.53 0.59 0.63 0.65 0.64
0.35 0.39 0.39 0.38 0.44 0.50 0.95 1.63 1.14 0.90 0.38 0.83 0.65 0.55 0.89 0.38 0.39 0.53 0.49 0.43 0.42 0.41 0.40 0.41 0.47 0.49 0.53
0.32 0.37 0.39 0.40 0.45 0.61 0.98 1.82 2.06 1.47 0.56 1.39 1.45 0.63 1.00 0.57 0.41 0.50 0.42 0.45 0.47 0.45 0.41 0.39 0.37 0.40 0.61
0.47 0.52 0.51 0.52 0.59 0.66 0.72 0.85 1.04 1.41 0.85 1.07 1.91 0.94 1.18 0.83 0.53 0.55 0.54 0.49 0.53 0.46 0.39 0.44 0.53 0.59 0.62
0.81 0.82 0.75 0.80 0.84 0.76 0.68 0.64 0.69 0.74 0.86 0.87 1.19 1.06 1.10 0.99 0.74 0.52 0.68 0.70 0.76 0.81 0.64 0.47 0.42 0.43 0.57
0.68 0.61 0.70 0.74 0.73 0.84 1.06 0.96 1.04 0.84 0.70 0.63 0.77 0.93 0.90 0.56 0.84 0.71 0.60 1.06 1.04 1.09 1.05 0.62 0.49 0.40 0.31
0.57 0.62 0.72 0.81 0.83 0.93 1.21 1.16 1.01 0.76 0.62 0.47 0.39 0.40 0.48 0.59 0.66 0.65 0.87 0.84 1.10 1.48 1.27 0.84 0.69 0.55 0.42
0.62 0.69 0.85 0.92 1.10 1.21 1.23 1.03 0.83 0.61 0.53 0.42 0.37 0.34 0.31 0.30 0.61 0.92 0.82 0.90 1.19 1.36 1.36 0.78 0.75 0.81 0.63
0.92 0.94 1.00 1.07 1.13 1.15 0.94 0.70 0.51 0.36 0.21 0.16 0.34 0.56 0.61 0.29 0.29 0.70 1.21 1.07 0.83 0.88 0.91 0.63 0.71 0.88 0.69

GFSFLT2_prec_precacc_078.txt.gz
Total_Precipitation_Accumulation
0.39 0.32 0.24 0.16 0.10 0.10 0.08 0.05 0.04 0.05 0.08 0.10 0.13 0.15 0.15 0.15 0.18 0.21 0.29 0.38 0.47 0.57 0.71 0.87 1.07 1.15 1.09
0.15 0.16 0.12 0.11 0.11 0.12 0.12 0.13 0.14 0.12 0.13 0.12 0.14 0.18 0.22 0.23 0.23 0.25 0.25 0.28 0.36 0.49 0.58 0.65 0.72 0.86 1.01
0.22 0.15 0.10 0.12 0.16 0.20 0.20 0.19 0.18 0.22 0.27 0.26 0.28 0.32 0.36 0.37 0.37 0.43 0.51 0.54 0.54 0.51 0.56 0.66 0.78 0.89 0.93
0.40 0.28 0.21 0.19 0.26 0.28 0.25 0.26 0.29 0.30 0.33 0.32 0.31 0.31 0.32 0.37 0.43 0.45 0.46 0.48 0.54 0.62 0.70 0.71 0.72 0.77 0.87
0.66 0.60 0.56 0.44 0.39 0.40 0.46 0.38 0.32 0.25 0.21 0.22 0.27 0.32 0.33 0.35 0.40 0.37 0.41 0.51 0.60 0.65 0.68 0.78 0.85 0.91 0.92
0.94 0.72 0.45 0.41 0.38 0.45 0.59 0.71 0.63 0.29 0.28 0.36 0.40 0.47 0.46 0.46 0.45 0.43 0.44 0.46 0.50 0.56 0.65 0.70 0.71 0.77 0.87
0.51 0.43 0.40 0.36 0.53 0.66 0.66 0.76 0.64 0.34 0.40 0.48 0.38 0.40 0.41 0.46 0.54 0.47 0.48 0.48 0.49 0.52 0.56 0.59 0.59 0.66 0.73
0.33 0.36 0.46 0.57 0.82 1.12 1.09 0.99 0.69 0.45 0.42 0.56 0.31 0.35 0.37 0.44 0.57 0.47 0.40 0.42 0.46 0.49 0.50 0.53 0.58 0.64 0.63
0.39 0.45 0.43 0.38 0.41 0.77 0.90 0.83 0.72 0.39 0.31 0.43 0.36 0.37 0.41 0.39 0.45 0.46 0.42 0.45 0.51 0.53 0.53 0.59 0.63 0.65 0.64
0.35 0.39 0.39 0.38 0.44 0.50 0.95 1.63 1.14 0.90 0.38 0.83 0.65 0.55 0.90 0.38 0.39 0.53 0.49 0.43 0.42 0.41 0.40 0.41 0.47 0.49 0.53
0.32 0.37 0.39 0.40 0.45 0.61 0.98 1.82 2.06 1.47 0.56 1.41 1.46 0.63 1.01 0.57 0.41 0.50 0.42 0.45 0.47 0.45 0.41 0.39 0.37 0.40 0.61
0.47 0.52 0.51 0.52 0.59 0.66 0.72 0.85 1.04 1.41 0.85 1.08 1.93 0.94 1.20 0.84 0.53 0.55 0.54 0.49 0.53 0.46 0.39 0.44 0.53 0.59 0.63
0.81 0.82 0.75 0.80 0.84 0.76 0.68 0.64 0.69 0.74 0.86 0.87 1.20 1.07 1.13 1.01 0.74 0.52 0.68 0.70 0.76 0.81 0.64 0.47 0.42 0.43 0.57
0.68 0.61 0.70 0.74 0.73 0.84 1.06 0.96 1.04 0.84 0.70 0.63 0.77 0.95 0.92 0.57 0.85 0.72 0.60 1.06 1.04 1.09 1.05 0.62 0.49 0.40 0.31
0.57 0.62 0.72 0.81 0.83 0.93 1.21 1.16 1.01 0.76 0.62 0.47 0.39 0.40 0.48 0.60 0.67 0.65 0.87 0.84 1.10 1.48 1.27 0.85 0.69 0.55 0.42
0.62 0.69 0.85 0.92 1.10 1.21 1.23 1.03 0.84 0.61 0.53 0.42 0.37 0.35 0.32 0.30 0.61 0.92 0.82 0.91 1.19 1.36 1.36 0.79 0.76 0.81 0.63
0.93 0.94 1.00 1.08 1.14 1.15 0.94 0.71 0.51 0.36 0.21 0.16 0.34 0.57 0.63 0.30 0.29 0.70 1.21 1.07 0.83 0.88 0.91 0.63 0.71 0.88 0.69

GFSFLT2_prec_precacc_084.txt.gz
Total_Precipitation_Accumulation
0.53 0.45 0.34 0.25 0.15 0.12 0.08 0.05 0.04 0.05 0.08 0.10 0.13 0.15 0.15 0.15 0.18 0.21 0.29 0.39 0.47 0.57 0.71 0.88 1.08 1.16 1.10
0.23 0.22 0.17 0.15 0.12 0.13 0.12 0.13 0.14 0.12 0.13 0.12 0.14 0.18 0.22 0.23 0.23 0.25 0.25 0.28 0.36 0.49 0.59 0.65 0.73 0.86 1.02
0.25 0.16 0.11 0.12 0.16 0.20 0.20 0.19 0.18 0.22 0.27 0.26 0.28 0.32 0.36 0.37 0.37 0.43 0.51 0.54 0.54 0.51 0.56 0.66 0.78 0.89 0.93
0.40 0.29 0.22 0.19 0.26 0.28 0.25 0.26 0.29 0.30 0.33 0.32 0.31 0.31 0.32 0.37 0.43 0.45 0.46 0.48 0.54 0.62 0.70 0.71 0.72 0.77 0.87
0.66 0.60 0.56 0.44 0.39 0.40 0.46 0.38 0.32 0.25 0.21 0.22 0.27 0.32 0.33 0.35 0.40 0.37 0.41 0.51 0.60 0.65 0.68 0.78 0.85 0.92 0.92
0.94 0.72 0.45 0.41 0.38 0.45 0.59 0.71 0.63 0.29 0.28 0.36 0.40 0.47 0.46 0.46 0.45 0.43 0.44 0.46 0.50 0.56 0.66 0.70 0.71 0.77 0.87
0.51 0.43 0.40 0.36 0.53 0.66 0.66 0.76 0.64 0.34 0.40 0.48 0.38 0.40 0.41 0.46 0.54 0.47 0.48 0.48 0.49 0.52 0.56 0.59 0.60 0.66 0.74
0.33 0.36 0.46 0.57 0.82 1.12 1.09 0.99 0.69 0.45 0.42 0.56 0.31 0.35 0.37 0.44 0.57 0.47 0.40 0.42 0.46 0.49 0.50 0.53 0.58 0.64 0.64
0.39 0.45 0.43 0.38 0.41 0.77 0.90 0.83 0.72 0.39 0.31 0.43 0.36 0.37 0.41 0.39 0.45 0.46 0.42 0.45 0.51 0.53 0.53 0.59 0.63 0.65 0.64
0.35 0.39 0.39 0.38 0.44 0.50 0.95 1.63 1.14 0.90 0.38 0.84 0.65 0.55 0.90 0.38 0.39 0.53 0.49 0.43 0.42 0.41 0.40 0.41 0.47 0.49 0.53
0.32 0.37 0.39 0.40 0.45 0.61 0.98 1.82 2.07 1.47 0.56 1.43 1.48 0.63 1.02 0.58 0.41 0.50 0.42 0.45 0.47 0.45 0.41 0.39 0.37 0.40 0.61
0.47 0.52 0.51 0.52 0.59 0.66 0.72 0.85 1.04 1.41 0.85 1.09 1.96 0.96 1.23 0.86 0.53 0.55 0.54 0.49 0.53 0.46 0.39 0.44 0.53 0.59 0.63
0.81 0.82 0.75 0.80 0.84 0.76 0.68 0.64 0.69 0.74 0.86 0.87 1.21 1.08 1.15 1.03 0.75 0.52 0.68 0.70 0.76 0.81 0.64 0.47 0.42 0.43 0.57
0.68 0.61 0.70 0.74 0.73 0.84 1.06 0.96 1.04 0.84 0.70 0.63 0.77 0.95 0.93 0.58 0.86 0.73 0.60 1.07 1.04 1.09 1.05 0.62 0.49 0.40 0.31
0.57 0.62 0.72 0.81 0.83 0.93 1.21 1.16 1.02 0.76 0.62 0.47 0.39 0.40 0.48 0.60 0.67 0.65 0.87 0.84 1.10 1.48 1.28 0.85 0.69 0.55 0.42
0.62 0.69 0.85 0.92 1.10 1.22 1.23 1.04 0.84 0.61 0.53 0.42 0.37 0.35 0.32 0.30 0.61 0.92 0.82 0.91 1.19 1.36 1.36 0.79 0.76 0.81 0.63
0.93 0.94 1.00 1.08 1.14 1.16 0.94 0.71 0.52 0.36 0.21 0.16 0.34 0.57 0.66 0.30 0.29 0.70 1.21 1.07 0.83 0.88 0.91 0.64 0.72 0.88 0.69

GFSFLT2_prec_precacc_087.txt.gz
Total_Precipitation_Accumulation
0.53 0.45 0.34 0.25 0.16 0.13 0.09 0.06 0.05 0.05 0.08 0.10 0.13 0.15 0.15 0.15 0.18 0.21 0.29 0.39 0.47 0.57 0.72 0.89 1.09 1.17 1.11
0.23 0.22 0.17 0.15 0.12 0.13 0.12 0.13 0.14 0.12 0.13 0.12 0.14 0.18 0.22 0.23 0.23 0.25 0.25 0.28 0.36 0.49 0.59 0.66 0.74 0.87 1.02
0.25 0.16 0.11 0.12 0.16 0.20 0.20 0.19 0.18 0.22 0.27 0.26 0.28 0.32 0.36 0.37 0.37 0.43 0.51 0.54 0.54 0.51 0.56 0.66 0.78 0.89 0.93
0.40 0.29 0.22 0.19 0.26 0.28 0.25 0.26 0.29 0.30 0.33 0.32 0.31 0.31 0.32 0.37 0.43 0.45 0.46 0.48 0.54 0.62 0.70 0.71 0.72 0.77 0.87
0.66 0.60 0.56 0.44 0.39 0.40 0.46 0.38 0.32 0.25 0.21 0.22 0.27 0.32 0.33 0.35 0.40 0.37 0.41 0.51 0.60 0.65 0.68 0.78 0.85 0.92 0.92
0.94 0.72 0.45 0.41 0.38 0.45 0.59 0.71 0.63 0.29 0.28 0.36 0.40 0.47 0.46 0.46 0.45 0.43 0.44 0.46 0.50 0.56 0.66 0.70 0.71 0.77 0.87
0.51 0.43 0.40 0.36 0.53 0.66 0.66 0.76 0.64 0.34 0.40 0.48 0.38 0.40 0.41 0.46 0.54 0.47 0.48 0.48 0.49 0.52 0.56 0.59 0.60 0.66 0.74
0.33 0.36 0.46 0.57 0.82 1.12 1.09 0.99 0.69 0.45 0.42 0.56 0.31 0.35 0.37 0.44 0.57 0.47 0.40 0.42 0.46 0.49 0.50 0.53 0.58 0.64 0.64
0.39 0.45 0.43 0.38 0.41 0.77 0.90 0.83 0.72 0.39 0.31 0.43 0.36 0.37 0.41 0.39 0.45 0.46 0.42 0.45 0.51 0.53 0.53 0.59 0.63 0.65 0.64
0.35 0.39 0.39 0.38 0.44 0.50 0.95 1.63 1.14 0.90 0.38 0.84 0.65 0.55 0.90 0.38 0.39 0.53 0.49 0.43 0.42 0.41 0.40 0.41 0.47 0.49 0.53
0.32 0.37 0.39 0.40 0.45 0.61 0.98 1.82 2.07 1.47 0.56 1.43 1.48 0.64 1.03 0.58 0.41 0.50 0.42 0.45 0.47 0.45 0.41 0.39 0.37 0.40 0.61
0.47 0.52 0.51 0.52 0.59 0.66 0.72 0.85 1.04 1.41 0.85 1.09 1.97 0.96 1.23 0.86 0.53 0.55 0.54 0.49 0.53 0.46 0.39 0.44 0.53 0.59 0.63
0.81 0.82 0.75 0.80 0.84 0.76 0.68 0.64 0.69 0.74 0.86 0.87 1.21 1.08 1.16 1.05 0.76 0.52 0.68 0.70 0.76 0.81 0.64 0.47 0.42 0.43 0.57
0.68 0.61 0.70 0.74 0.73 0.84 1.06 0.96 1.04 0.84 0.70 0.63 0.77 0.95 0.93 0.58 0.87 0.73 0.60 1.07 1.04 1.09 1.05 0.62 0.49 0.40 0.31
0.57 0.62 0.72 0.81 0.83 0.93 1.21 1.16 1.02 0.76 0.62 0.47 0.39 0.40 0.48 0.60 0.67 0.65 0.87 0.84 1.10 1.48 1.28 0.85 0.69 0.55 0.42
0.62 0.69 0.85 0.92 1.10 1.22 1.23 1.04 0.85 0.61 0.53 0.42 0.37 0.35 0.32 0.30 0.61 0.92 0.82 0.91 1.19 1.36 1.36 0.80 0.76 0.81 0.63
0.93 0.94 1.01 1.08 1.14 1.16 0.94 0.71 0.52 0.36 0.21 0.16 0.34 0.58 0.67 0.31 0.29 0.70 1.21 1.07 0.83 0.88 0.91 0.64 0.72 0.88 0.69

GFSFLT2_prec_precacc_090.txt.gz
Total_Precipitation_Accumulation
0.53 0.45 0.34 0.25 0.16 0.13 0.09 0.06 0.05 0.06 0.08 0.10 0.13 0.15 0.15 0.15 0.18 0.21 0.29 0.39 0.47 0.57 0.72 0.89 1.09 1.18 1.12
0.23 0.22 0.17 0.15 0.12 0.13 0.12 0.13 0.14 0.12 0.13 0.12 0.14 0.18 0.22 0.23 0.23 0.25 0.25 0.28 0.36 0.50 0.59 0.66 0.74 0.87 1.03
0.25 0.16 0.11 0.12 0.16 0.20 0.20 0.19 0.18 0.22 0.27 0.26 0.28 0.32 0.36 0.37 0.37 0.43 0.51 0.54 0.54 0.51 0.56 0.66 0.78 0.89 0.93
0.40 0.29 0.22 0.19 0.26 0.28 0.25 0.26 0.29 0.30 0.33 0.32 0.31 0.31 0.32 0.37 0.43 0.45 0.46 0.48 0.54 0.62 0.70 0.71 0.72 0.77 0.87
0.66 0.60 0.56 0.44 0.39 0.40 0.46 0.38 0.32 0.25 0.21 0.22 0.27 0.32 0.33 0.35 0.40 0.37 0.41 0.51 0.60 0.65 0.68 0.78 0.85 0.92 0.92
0.94 0.72 0.45 0.41 0.38 0.45 0.59 0.71 0.63 0.29 0.28 0.36 0.40 0.47 0.46 0.46 0.45 0.43 0.44 0.46 0.50 0.56 0.66 0.70 0.71 0.77 0.87
0.51 0.43 0.40 0.36 0.53 0.66 0.66 0.76 0.64 0.34 0.40 0.48 0.38 0.40 0.41 0.46 0.54 0.47 0.48 0.48 0.49 0.52 0.56 0.59 0.60 0.66 0.74
0.33 0.36 0.46 0.57 0.82 1.12 1.09 0.99 0.69 0.45 0.42 0.56 0.31 0.35 0.37 0.44 0.57 0.47 0.40 0.42 0.46 0.49 0.50 0.53 0.58 0.64 0.64
0.39 0.45 0.43 0.38 0.41 0.77 0.90 0.83 0.72 0.39 0.31 0.43 0.36 0.37 0.41 0.39 0.45 0.46 0.42 0.45 0.51 0.53 0.53 0.59 0.63 0.65 0.64
0.35 0.39 0.39 0.38 0.44 0.50 0.95 1.63 1.14 0.90 0.38 0.84 0.65 0.55 0.90 0.38 0.39 0.53 0.49 0.43 0.42 0.41 0.40 0.41 0.47 0.49 0.53
0.32 0.37 0.39 0.40 0.45 0.61 0.98 1.82 2.07 1.47 0.56 1.44 1.48 0.64 1.03 0.58 0.41 0.50 0.42 0.45 0.47 0.45 0.41 0.39 0.37 0.40 0.61
0.47 0.52 0.51 0.52 0.59 0.66 0.72 0.85 1.04 1.42 0.85 1.09 1.97 0.96 1.24 0.87 0.53 0.55 0.54 0.49 0.53 0.46 0.39 0.44 0.53 0.59 0.63
0.81 0.82 0.75 0.80 0.84 0.76 0.68 0.64 0.69 0.74 0.86 0.87 1.21 1.08 1.17 1.06 0.76 0.52 0.68 0.70 0.76 0.81 0.64 0.47 0.42 0.43 0.57
0.68 0.61 0.70 0.74 0.73 0.84 1.06 0.96 1.04 0.84 0.70 0.63 0.77 0.95 0.93 0.59 0.87 0.73 0.60 1.07 1.04 1.09 1.05 0.62 0.49 0.40 0.31
0.57 0.62 0.72 0.81 0.83 0.93 1.21 1.16 1.02 0.77 0.62 0.47 0.39 0.40 0.48 0.60 0.67 0.65 0.87 0.84 1.10 1.48 1.28 0.85 0.69 0.55 0.42
0.62 0.69 0.85 0.93 1.11 1.22 1.23 1.04 0.85 0.62 0.53 0.42 0.37 0.35 0.32 0.30 0.61 0.92 0.82 0.91 1.19 1.36 1.36 0.80 0.76 0.81 0.63
0.93 0.94 1.01 1.09 1.15 1.16 0.94 0.71 0.52 0.36 0.21 0.16 0.34 0.58 0.67 0.31 0.29 0.70 1.21 1.07 0.83 0.88 0.91 0.64 0.72 0.88 0.69

GFSFLT2_prec_precacc_096.txt.gz
Total_Precipitation_Accumulation
0.53 0.45 0.34 0.25 0.16 0.13 0.09 0.06 0.05 0.06 0.08 0.10 0.13 0.15 0.15 0.15 0.18 0.21 0.29 0.39 0.47 0.57 0.72 0.89 1.09 1.18 1.12
0.23 0.22 0.17 0.15 0.12 0.13 0.12 0.13 0.14 0.12 0.13 0.12 0.14 0.18 0.22 0.23 0.23 0.25 0.25 0.28 0.36 0.50 0.59 0.66 0.74 0.87 1.03
0.25 0.16 0.11 0.12 0.16 0.20 0.20 0.19 0.18 0.22 0.27 0.26 0.28 0.32 0.36 0.37 0.37 0.43 0.51 0.54 0.54 0.51 0.56 0.66 0.78 0.89 0.93
0.40 0.29 0.22 0.19 0.26 0.28 0.25 0.26 0.29 0.30 0.33 0.32 0.31 0.31 0.32 0.37 0.43 0.45 0.46 0.48 0.54 0.62 0.70 0.71 0.72 0.77 0.87
0.66 0.60 0.56 0.44 0.39 0.40 0.46 0.38 0.32 0.25 0.21 0.22 0.27 0.32 0.33 0.35 0.40 0.37 0.41 0.51 0.60 0.65 0.68 0.78 0.85 0.92 0.92
0.94 0.72 0.45 0.41 0.38 0.45 0.59 0.71 0.63 0.29 0.28 0.36 0.40 0.47 0.46 0.46 0.45 0.43 0.44 0.46 0.50 0.56 0.66 0.70 0.71 0.77 0.87
0.51 0.43 0.40 0.36 0.53 0.66 0.66 0.76 0.64 0.34 0.40 0.48 0.38 0.40 0.41 0.46 0.54 0.47 0.48 0.48 0.49 0.52 0.56 0.59 0.60 0.66 0.74
0.33 0.36 0.46 0.57 0.82 1.12 1.09 0.99 0.69 0.45 0.42 0.56 0.31 0.35 0.37 0.44 0.57 0.47 0.40 0.42 0.46 0.49 0.50 0.53 0.58 0.64 0.64
0.39 0.45 0.43 0.38 0.41 0.77 0.90 0.83 0.72 0.39 0.31 0.43 0.36 0.37 0.41 0.39 0.45 0.46 0.42 0.45 0.51 0.53 0.53 0.59 0.63 0.65 0.64
0.35 0.39 0.39 0.38 0.44 0.50 0.95 1.63 1.14 0.90 0.38 0.84 0.65 0.55 0.90 0.38 0.39 0.53 0.49 0.43 0.42 0.41 0.40 0.41 0.47 0.49 0.53
0.32 0.37 0.39 0.40 0.45 0.61 0.98 1.82 2.07 1.47 0.56 1.44 1.48 0.64 1.03 0.58 0.41 0.50 0.42 0.45 0.47 0.45 0.41 0.39 0.37 0.40 0.61
0.47 0.52 0.51 0.52 0.59 0.66 0.72 0.85 1.04 1.42 0.85 1.10 1.98 0.97 1.25 0.87 0.53 0.55 0.54 0.49 0.53 0.46 0.39 0.44 0.53 0.59 0.63
0.81 0.82 0.75 0.80 0.84 0.76 0.68 0.64 0.69 0.74 0.86 0.87 1.22 1.09 1.18 1.07 0.77 0.52 0.68 0.70 0.76 0.81 0.64 0.47 0.42 0.43 0.57
0.68 0.61 0.70 0.74 0.73 0.84 1.07 0.97 1.04 0.84 0.70 0.63 0.77 0.95 0.94 0.59 0.87 0.73 0.60 1.07 1.04 1.09 1.05 0.62 0.49 0.40 0.31
0.57 0.62 0.72 0.81 0.83 0.94 1.21 1.17 1.03 0.77 0.62 0.47 0.39 0.40 0.48 0.60 0.68 0.65 0.87 0.84 1.10 1.48 1.28 0.85 0.69 0.55 0.42
0.62 0.69 0.85 0.93 1.11 1.22 1.24 1.05 0.86 0.62 0.53 0.42 0.37 0.36 0.32 0.30 0.61 0.92 0.82 0.91 1.19 1.36 1.37 0.80 0.76 0.81 0.63
0.93 0.94 1.01 1.09 1.15 1.16 0.95 0.72 0.52 0.37 0.21 0.16 0.34 0.59 0.68 0.31 0.29 0.70 1.21 1.07 0.83 0.88 0.91 0.64 0.72 0.88 0.69

GFSFLT2_prec_precacc_099.txt.gz
Total_Precipitation_Accumulation
0.53 0.45 0.34 0.25 0.16 0.13 0.09 0.06 0.05 0.06 0.08 0.10 0.13 0.15 0.15 0.15 0.18 0.21 0.29 0.39 0.47 0.57 0.72 0.89 1.09 1.18 1.12
0.23 0.22 0.17 0.15 0.12 0.13 0.12 0.13 0.14 0.12 0.13 0.12 0.14 0.18 0.22 0.23 0.23 0.25 0.25 0.28 0.36 0.50 0.59 0.66 0.74 0.87 1.03
0.25 0.16 0.11 0.12 0.16 0.20 0.20 0.19 0.18 0.22 0.27 0.26 0.28 0.32 0.36 0.37 0.37 0.43 0.51 0.54 0.54 0.51 0.56 0.66 0.78 0.89 0.93
0.40 0.29 0.22 0.19 0.26 0.28 0.25 0.26 0.29 0.30 0.33 0.32 0.31 0.31 0.32 0.37 0.43 0.45 0.46 0.48 0.54 0.62 0.70 0.71 0.72 0.77 0.87
0.66 0.60 0.56 0.44 0.39 0.40 0.46 0.38 0.32 0.25 0.21 0.22 0.27 0.32 0.33 0.35 0.40 0.37 0.41 0.51 0.60 0.65 0.68 0.78 0.85 0.92 0.92
0.94 0.72 0.45 0.41 0.38 0.45 0.59 0.71 0.63 0.29 0.28 0.36 0.40 0.47 0.46 0.46 0.45 0.43 0.44 0.46 0.50 0.56 0.66 0.70 0.71 0.77 0.87
0.51 0.43 0.40 0.36 0.53 0.66 0.66 0.76 0.64 0.34 0.40 0.48 0.38 0.40 0.41 0.46 0.54 0.47 0.48 0.48 0.49 0.52 0.56 0.59 0.60 0.66 0.74
0.33 0.36 0.46 0.57 0.82 1.12 1.09 0.99 0.69 0.45 0.42 0.56 0.31 0.35 0.37 0.44 0.57 0.47 0.40 0.42 0.46 0.49 0.50 0.53 0.58 0.64 0.64
0.39 0.45 0.43 0.38 0.41 0.77 0.90 0.83 0.72 0.39 0.31 0.43 0.36 0.37 0.41 0.39 0.45 0.46 0.42 0.45 0.51 0.53 0.53 0.59 0.63 0.65 0.64
0.35 0.39 0.39 0.38 0.44 0.50 0.95 1.63 1.14 0.90 0.38 0.84 0.65 0.55 0.90 0.38 0.39 0.53 0.49 0.43 0.42 0.41 0.40 0.41 0.47 0.49 0.53
0.32 0.37 0.39 0.40 0.45 0.61 0.98 1.82 2.07 1.47 0.56 1.44 1.48 0.64 1.03 0.58 0.41 0.50 0.42 0.45 0.47 0.45 0.41 0.39 0.37 0.40 0.61
0.47 0.52 0.51 0.52 0.59 0.66 0.72 0.85 1.04 1.42 0.85 1.10 1.99 0.97 1.25 0.87 0.53 0.55 0.54 0.49 0.53 0.46 0.39 0.44 0.53 0.59 0.63
0.81 0.82 0.75 0.80 0.84 0.76 0.68 0.64 0.69 0.74 0.86 0.87 1.22 1.09 1.18 1.07 0.77 0.52 0.68 0.70 0.76 0.81 0.64 0.47 0.42 0.43 0.57
0.68 0.61 0.70 0.74 0.73 0.84 1.07 0.97 1.04 0.84 0.70 0.63 0.77 0.96 0.94 0.59 0.87 0.73 0.60 1.07 1.04 1.09 1.05 0.62 0.49 0.40 0.31
0.57 0.62 0.72 0.81 0.83 0.94 1.22 1.17 1.03 0.77 0.62 0.47 0.39 0.40 0.48 0.60 0.68 0.65 0.87 0.84 1.10 1.48 1.28 0.85 0.69 0.55 0.42
0.62 0.69 0.85 0.93 1.11 1.22 1.24 1.05 0.86 0.62 0.53 0.42 0.37 0.36 0.32 0.30 0.61 0.92 0.82 0.91 1.19 1.36 1.37 0.80 0.76 0.81 0.63
0.93 0.94 1.01 1.09 1.15 1.16 0.95 0.72 0.52 0.37 0.21 0.16 0.34 0.59 0.69 0.31 0.29 0.70 1.21 1.07 0.83 0.88 0.91 0.64 0.73 0.88 0.69

GFSFLT2_prec_precacc_102.txt.gz
Total_Precipitation_Accumulation
0.53 0.45 0.34 0.25 0.16 0.13 0.09 0.06 0.05 0.06 0.08 0.10 0.13 0.15 0.15 0.15 0.18 0.21 0.29 0.39 0.47 0.57 0.72 0.89 1.09 1.18 1.12
0.23 0.22 0.17 0.15 0.12 0.13 0.12 0.13 0.14 0.12 0.13 0.12 0.14 0.18 0.22 0.23 0.23 0.25 0.25 0.28 0.36 0.50 0.59 0.66 0.74 0.87 1.03
0.25 0.16 0.11 0.12 0.16 0.20 0.20 0.19 0.18 0.22 0.27 0.26 0.28 0.32 0.36 0.37 0.37 0.43 0.51 0.54 0.54 0.51 0.56 0.66 0.78 0.89 0.93
0.40 0.29 0.22 0.19 0.26 0.28 0.25 0.26 0.29 0.30 0.33 0.32 0.31 0.31 0.32 0.37 0.43 0.45 0.46 0.48 0.54 0.62 0.70 0.71 0.72 0.77 0.87
0.66 0.60 0.56 0.44 0.39 0.40 0.46 0.38 0.32 0.25 0.21 0.22 0.27 0.32 0.33 0.35 0.40 0.37 0.41 0.51 0.60 0.65 0.68 0.78 0.85 0.92 0.92
0.94 0.72 0.45 0.41 0.38 0.45 0.59 0.71 0.63 0.29 0.28 0.36 0.40 0.47 0.46 0.46 0.45 0.43 0.44 0.46 0.50 0.56 0.66 0.70 0.71 0.77 0.87
0.51 0.43 0.40 0.36 0.53 0.66 0.66 0.76 0.64 0.34 0.40 0.48 0.38 0.40 0.41 0.46 0.54 0.47 0.48 0.48 0.49 0.52 0.56 0.59 0.60 0.66 0.74
0.33 0.36 0.46 0.57 0.82 1.12 1.09 0.99 0.69 0.45 0.42 0.56 0.31 0.35 0.37 0.44 0.57 0.47 0.40 0.42 0.46 0.49 0.50 0.53 0.58 0.64 0.64
0.39 0.45 0.43 0.38 0.41 0.77 0.90 0.83 0.72 0.39 0.31 0.43 0.36 0.37 0.41 0.39 0.45 0.46 0.42 0.45 0.51 0.53 0.53 0.59 0.63 0.65 0.64
0.35 0.39 0.39 0.38 0.44 0.50 0.95 1.63 1.14 0.90 0.38 0.84 0.65 0.55 0.90 0.38 0.39 0.53 0.49 0.43 0.42 0.41 0.40 0.41 0.47 0.49 0.53
0.32 0.37 0.39 0.40 0.45 0.61 0.98 1.82 2.07 1.47 0.56 1.44 1.48 0.64 1.03 0.58 0.41 0.50 0.42 0.45 0.47 0.45 0.41 0.39 0.37 0.40 0.61
0.47 0.52 0.51 0.52 0.59 0.66 0.72 0.85 1.04 1.42 0.85 1.10 1.99 0.97 1.25 0.88 0.53 0.55 0.54 0.49 0.53 0.46 0.39 0.44 0.53 0.59 0.63
0.81 0.82 0.75 0.80 0.84 0.76 0.68 0.64 0.69 0.74 0.86 0.87 1.22 1.09 1.19 1.07 0.77 0.52 0.68 0.70 0.76 0.81 0.64 0.47 0.42 0.43 0.57
0.68 0.61 0.70 0.74 0.73 0.84 1.07 0.97 1.04 0.84 0.70 0.63 0.77 0.96 0.94 0.59 0.87 0.74 0.60 1.07 1.04 1.09 1.05 0.62 0.49 0.40 0.31
0.57 0.62 0.72 0.81 0.83 0.94 1.22 1.17 1.03 0.77 0.62 0.47 0.39 0.40 0.48 0.60 0.68 0.65 0.87 0.84 1.10 1.48 1.28 0.85 0.69 0.55 0.42
0.62 0.69 0.85 0.93 1.11 1.22 1.24 1.05 0.86 0.62 0.54 0.42 0.37 0.36 0.32 0.30 0.61 0.92 0.82 0.91 1.19 1.36 1.37 0.80 0.76 0.81 0.63
0.93 0.94 1.01 1.09 1.15 1.16 0.95 0.72 0.52 0.37 0.21 0.16 0.34 0.59 0.69 0.31 0.29 0.70 1.21 1.07 0.83 0.88 0.91 0.64 0.73 0.88 0.69

GFSFLT2_prec_precacc_105.txt.gz
Total_Precipitation_Accumulation
0.54 0.45 0.34 0.25 0.16 0.13 0.09 0.06 0.05 0.06 0.08 0.10 0.13 0.15 0.15 0.15 0.18 0.21 0.29 0.39 0.47 0.57 0.72 0.89 1.09 1.18 1.12
0.24 0.22 0.17 0.15 0.12 0.13 0.12 0.13 0.14 0.12 0.13 0.12 0.14 0.18 0.22 0.23 0.23 0.25 0.25 0.28 0.36 0.50 0.59 0.66 0.74 0.87 1.03
0.25 0.16 0.11 0.12 0.16 0.20 0.20 0.19 0.18 0.22 0.27 0.26 0.28 0.32 0.36 0.37 0.37 0.43 0.51 0.54 0.54 0.51 0.56 0.66 0.78 0.89 0.93
0.41 0.29 0.22 0.19 0.26 0.28 0.25 0.26 0.29 0.30 0.33 0.32 0.31 0.31 0.32 0.37 0.43 0.45 0.46 0.48 0.54 0.62 0.70 0.71 0.72 0.77 0.87
0.66 0.60 0.56 0.44 0.39 0.40 0.46 0.38 0.32 0.25 0.21 0.22 0.27 0.32 0.33 0.35 0.40 0.37 0.41 0.51 0.60 0.65 0.68 0.78 0.85 0.92 0.92
0.94 0.72 0.45 0.41 0.38 0.45 0.59 0.71 0.63 0.29 0.28 0.36 0.40 0.47 0.46 0.46 0.45 0.43 0.44 0.46 0.50 0.56 0.66 0.70 0.71 0.77 0.87
0.51 0.43 0.40 0.36 0.53 0.66 0.66 0.76 0.64 0.34 0.40 0.48 0.38 0.40 0.41 0.46 0.54 0.47 0.48 0.48 0.49 0.52 0.56 0.59 0.60 0.66 0.74
0.33 0.36 0.46 0.57 0.82 1.12 1.09 0.99 0.69 0.45 0.42 0.56 0.31 0.35 0.37 0.44 0.57 0.47 0.40 0.42 0.46 0.49 0.50 0.53 0.58 0.64 0.64
0.39 0.45 0.43 0.38 0.41 0.77 0.90 0.83 0.72 0.39 0.31 0.43 0.36 0.37 0.41 0.39 0.45 0.46 0.42 0.45 0.51 0.53 0.53 0.59 0.63 0.65 0.64
0.35 0.39 0.39 0.38 0.44 0.50 0.95 1.63 1.14 0.90 0.38 0.84 0.65 0.55 0.90 0.38 0.39 0.53 0.49 0.43 0.42 0.41 0.40 0.41 0.47 0.49 0.53
0.32 0.37 0.39 0.40 0.45 0.61 0.98 1.82 2.07 1.47 0.56 1.44 1.48 0.64 1.03 0.58 0.41 0.50 0.42 0.45 0.47 0.45 0.41 0.39 0.37 0.40 0.61
0.47 0.52 0.51 0.52 0.59 0.66 0.72 0.85 1.04 1.42 0.85 1.10 1.99 0.97 1.25 0.88 0.53 0.55 0.54 0.49 0.53 0.46 0.39 0.44 0.53 0.59 0.63
0.81 0.82 0.75 0.80 0.84 0.76 0.68 0.64 0.69 0.74 0.86 0.87 1.22 1.09 1.19 1.07 0.77 0.52 0.68 0.70 0.76 0.81 0.64 0.47 0.42 0.43 0.57
0.68 0.61 0.70 0.74 0.73 0.84 1.07 0.97 1.04 0.84 0.70 0.63 0.77 0.96 0.94 0.59 0.87 0.74 0.60 1.07 1.04 1.09 1.05 0.62 0.49 0.40 0.31
0.57 0.62 0.72 0.81 0.83 0.94 1.22 1.17 1.03 0.77 0.62 0.47 0.39 0.40 0.48 0.60 0.68 0.65 0.87 0.84 1.10 1.48 1.28 0.85 0.69 0.55 0.42
0.62 0.69 0.85 0.93 1.11 1.22 1.24 1.05 0.86 0.62 0.54 0.42 0.37 0.36 0.32 0.30 0.61 0.92 0.82 0.91 1.19 1.36 1.37 0.80 0.76 0.81 0.63
0.93 0.94 1.01 1.09 1.15 1.16 0.95 0.72 0.52 0.37 0.21 0.16 0.34 0.59 0.69 0.31 0.29 0.70 1.21 1.07 0.83 0.88 0.91 0.64 0.73 0.88 0.69

GFSFLT2_prec_precacc_111.txt.gz
Total_Precipitation_Accumulation
0.55 0.47 0.35 0.25 0.16 0.13 0.09 0.06 0.05 0.06 0.08 0.10 0.13 0.15 0.15 0.15 0.18 0.21 0.29 0.39 0.47 0.57 0.72 0.89 1.09 1.18 1.12
0.26 0.24 0.19 0.16 0.13 0.14 0.12 0.13 0.14 0.12 0.13 0.12 0.14 0.18 0.22 0.23 0.23 0.25 0.25 0.28 0.36 0.50 0.59 0.66 0.74 0.87 1.03
0.27 0.17 0.12 0.13 0.16 0.21 0.20 0.19 0.18 0.22 0.27 0.26 0.28 0.32 0.36 0.37 0.37 0.43 0.51 0.54 0.54 0.51 0.56 0.66 0.78 0.89 0.93
0.43 0.32 0.25 0.22 0.29 0.30 0.26 0.26 0.29 0.30 0.33 0.32 0.31 0.31 0.32 0.37 0.43 0.45 0.46 0.48 0.54 0.62 0.70 0.71 0.72 0.77 0.87
0.68 0.62 0.58 0.46 0.41 0.41 0.46 0.38 0.32 0.25 0.21 0.22 0.27 0.32 0.33 0.35 0.40 0.37 0.41 0.51 0.60 0.65 0.68 0.78 0.85 0.92 0.92
0.96 0.73 0.46 0.42 0.38 0.45 0.60 0.72 0.63 0.29 0.28 0.36 0.40 0.47 0.46 0.46 0.45 0.43 0.44 0.46 0.50 0.56 0.66 0.70 0.71 0.77 0.87
0.52 0.44 0.41 0.37 0.54 0.66 0.66 0.76 0.64 0.34 0.40 0.48 0.38 0.40 0.41 0.46 0.54 0.47 0.48 0.48 0.49 0.52 0.56 0.59 0.60 0.66 0.74
0.33 0.36 0.46 0.57 0.82 1.12 1.09 0.99 0.69 0.45 0.42 0.56 0.31 0.35 0.37 0.44 0.57 0.47 0.40 0.42 0.46 0.49 0.50 0.53 0.58 0.64 0.64
0.39 0.45 0.43 0.38 0.41 0.77 0.90 0.83 0.72 0.39 0.31 0.43 0.36 0.37 0.41 0.39 0.45 0.46 0.42 0.45 0.51 0.53 0.53 0.59 0.63 0.65 0.64
0.35 0.39 0.39 0.38 0.44 0.50 0.95 1.63 1.14 0.90 0.38 0.84 0.65 0.55 0.90 0.38 0.39 0.53 0.49 0.43 0.42 0.41 0.40 0.41 0.47 0.49 0.53
0.33 0.37 0.39 0.40 0.45 0.61 0.98 1.82 2.07 1.47 0.56 1.44 1.48 0.64 1.03 0.58 0.41 0.50 0.42 0.45 0.47 0.45 0.41 0.39 0.37 0.40 0.61
0.47 0.52 0.51 0.52 0.59 0.66 0.72 0.85 1.04 1.42 0.85 1.10 1.99 0.97 1.25 0.88 0.53 0.55 0.54 0.49 0.53 0.46 0.39 0.44 0.53 0.59 0.63
0.81 0.82 0.75 0.80 0.84 0.76 0.68 0.64 0.69 0.74 0.86 0.87 1.22 1.09 1.19 1.07 0.77 0.52 0.68 0.70 0.76 0.81 0.64 0.47 0.42 0.43 0.57
0.68 0.61 0.70 0.74 0.73 0.84 1.07 0.97 1.04 0.84 0.70 0.63 0.77 0.96 0.94 0.59 0.87 0.74 0.60 1.07 1.04 1.09 1.05 0.62 0.49 0.40 0.31
0.57 0.62 0.72 0.81 0.83 0.94 1.22 1.17 1.03 0.77 0.62 0.47 0.39 0.40 0.48 0.60 0.68 0.65 0.87 0.84 1.10 1.48 1.28 0.85 0.69 0.55 0.42
0.62 0.69 0.85 0.93 1.11 1.22 1.24 1.05 0.86 0.62 0.54 0.42 0.37 0.37 0.32 0.30 0.61 0.92 0.82 0.91 1.19 1.36 1.37 0.80 0.76 0.81 0.63
0.93 0.94 1.01 1.09 1.15 1.17 0.95 0.72 0.52 0.37 0.21 0.16 0.34 0.59 0.69 0.31 0.29 0.70 1.21 1.07 0.83 0.88 0.91 0.64 0.73 0.88 0.69

GFSFLT2_prec_precacc_114.txt.gz
Total_Precipitation_Accumulation
0.55 0.47 0.35 0.25 0.16 0.13 0.10 0.06 0.05 0.06 0.08 0.10 0.13 0.15 0.15 0.15 0.18 0.21 0.29 0.39 0.47 0.57 0.72 0.89 1.09 1.18 1.12
0.26 0.24 0.19 0.17 0.14 0.14 0.13 0.13 0.14 0.12 0.14 0.12 0.14 0.18 0.22 0.23 0.23 0.25 0.25 0.28 0.36 0.50 0.59 0.66 0.74 0.87 1.03
0.27 0.18 0.12 0.13 0.16 0.21 0.21 0.19 0.18 0.22 0.27 0.26 0.28 0.32 0.36 0.37 0.37 0.43 0.51 0.54 0.54 0.51 0.56 0.66 0.78 0.89 0.93
0.44 0.32 0.25 0.23 0.29 0.31 0.26 0.26 0.29 0.30 0.33 0.32 0.31 0.31 0.32 0.37 0.43 0.45 0.46 0.48 0.54 0.62 0.70 0.71 0.72 0.77 0.87
0.69 0.63 0.59 0.46 0.41 0.41 0.47 0.39 0.33 0.25 0.21 0.22 0.27 0.32 0.33 0.35 0.40 0.37 0.41 0.51 0.60 0.65 0.68 0.78 0.85 0.92 0.92
0.96 0.74 0.47 0.43 0.39 0.46 0.60 0.72 0.63 0.29 0.28 0.36 0.40 0.47 0.46 0.46 0.45 0.43 0.44 0.46 0.50 0.56 0.66 0.70 0.71 0.77 0.87
0.52 0.45 0.42 0.37 0.54 0.68 0.67 0.77 0.65 0.34 0.40 0.48 0.38 0.40 0.41 0.46 0.54 0.47 0.48 0.48 0.49 0.52 0.56 0.59 0.60 0.66 0.74
0.33 0.37 0.47 0.59 0.83 1.13 1.10 0.99 0.69 0.45 0.42 0.56 0.31 0.35 0.37 0.44 0.57 0.47 0.40 0.42 0.46 0.49 0.50 0.53 0.58 0.64 0.64
0.39 0.46 0.44 0.39 0.42 0.77 0.90 0.83 0.72 0.39 0.31 0.43 0.36 0.37 0.41 0.39 0.45 0.46 0.42 0.45 0.51 0.53 0.53 0.59 0.63 0.65 0.64
0.35 0.39 0.39 0.38 0.44 0.50 0.95 1.63 1.14 0.90 0.38 0.84 0.65 0.55 0.90 0.38 0.39 0.53 0.49 0.43 0.42 0.41 0.40 0.41 0.47 0.49 0.53
0.33 0.37 0.39 0.40 0.45 0.61 0.98 1.82 2.07 1.47 0.56 1.44 1.48 0.64 1.03 0.58 0.41 0.50 0.42 0.45 0.47 0.45 0.41 0.39 0.37 0.40 0.61
0.47 0.52 0.51 0.52 0.59 0.66 0.72 0.85 1.04 1.42 0.85 1.10 1.99 0.97 1.25 0.88 0.53 0.55 0.54 0.49 0.53 0.46 0.39 0.44 0.53 0.59 0.63
0.81 0.82 0.75 0.80 0.84 0.76 0.68 0.64 0.69 0.74 0.86 0.87 1.22 1.09 1.19 1.07 0.77 0.52 0.68 0.70 0.76 0.81 0.64 0.47 0.42 0.43 0.57
0.68 0.61 0.70 0.74 0.73 0.84 1.07 0.97 1.04 0.84 0.70 0.63 0.77 0.96 0.94 0.59 0.87 0.74 0.60 1.07 1.04 1.09 1.05 0.62 0.49 0.40 0.31
0.57 0.62 0.72 0.81 0.83 0.94 1.22 1.17 1.03 0.77 0.62 0.47 0.39 0.40 0.48 0.60 0.68 0.65 0.87 0.84 1.10 1.48 1.28 0.85 0.69 0.55 0.42
0.62 0.69 0.85 0.93 1.11 1.22 1.24 1.05 0.86 0.62 0.54 0.42 0.37 0.37 0.33 0.30 0.61 0.92 0.82 0.91 1.19 1.36 1.37 0.81 0.76 0.81 0.63
0.93 0.94 1.01 1.09 1.15 1.17 0.95 0.72 0.52 0.37 0.21 0.16 0.34 0.59 0.70 0.31 0.29 0.70 1.21 1.07 0.83 0.88 0.91 0.64 0.73 0.88 0.69

GFSFLT2_prec_precacc_117.txt.gz
Total_Precipitation_Accumulation
0.55 0.47 0.35 0.25 0.16 0.13 0.10 0.06 0.05 0.07 0.08 0.10 0.14 0.15 0.15 0.15 0.18 0.21 0.30 0.39 0.48 0.58 0.72 0.89 1.09 1.18 1.12
0.26 0.24 0.19 0.17 0.14 0.14 0.13 0.13 0.14 0.12 0.14 0.12 0.14 0.18 0.22 0.23 0.23 0.25 0.25 0.28 0.36 0.50 0.59 0.66 0.74 0.87 1.03
0.27 0.18 0.12 0.13 0.16 0.21 0.21 0.19 0.18 0.23 0.27 0.26 0.28 0.32 0.36 0.37 0.37 0.43 0.51 0.54 0.54 0.51 0.56 0.66 0.78 0.89 0.93
0.44 0.32 0.25 0.23 0.29 0.31 0.26 0.26 0.29 0.30 0.33 0.32 0.31 0.31 0.32 0.37 0.43 0.45 0.46 0.48 0.54 0.62 0.70 0.71 0.72 0.77 0.87
0.69 0.63 0.59 0.47 0.41 0.41 0.47 0.39 0.33 0.25 0.22 0.23 0.27 0.32 0.33 0.35 0.40 0.37 0.41 0.51 0.60 0.65 0.68 0.78 0.85 0.92 0.92
0.96 0.74 0.47 0.43 0.40 0.47 0.62 0.74 0.64 0.29 0.28 0.36 0.40 0.47 0.46 0.46 0.45 0.43 0.44 0.46 0.50 0.56 0.66 0.70 0.71 0.77 0.87
0.52 0.45 0.42 0.38 0.56 0.69 0.68 0.78 0.67 0.35 0.41 0.49 0.38 0.40 0.41 0.46 0.54 0.47 0.48 0.48 0.49 0.52 0.56 0.59 0.60 0.66 0.74
0.33 0.37 0.47 0.59 0.84 1.16 1.13 1.02 0.71 0.46 0.42 0.56 0.31 0.35 0.37 0.44 0.57 0.47 0.40 0.42 0.46 0.49 0.50 0.53 0.58 0.64 0.64
0.39 0.46 0.44 0.39 0.42 0.78 0.92 0.85 0.74 0.39 0.31 0.43 0.36 0.37 0.41 0.39 0.45 0.46 0.42 0.45 0.51 0.53 0.53 0.59 0.63 0.65 0.64
0.35 0.39 0.39 0.38 0.44 0.50 0.95 1.63 1.14 0.90 0.38 0.84 0.65 0.55 0.90 0.38 0.39 0.53 0.49 0.43 0.42 0.41 0.40 0.41 0.47 0.49 0.53
0.33 0.37 0.39 0.40 0.45 0.61 0.98 1.82 2.07 1.47 0.56 1.44 1.48 0.64 1.03 0.58 0.41 0.50 0.42 0.45 0.47 0.45 0.41 0.39 0.37 0.40 0.61
0.47 0.52 0.51 0.52 0.59 0.66 0.72 0.85 1.04 1.42 0.85 1.10 1.99 0.97 1.25 0.88 0.53 0.55 0.54 0.49 0.53 0.46 0.39 0.44 0.53 0.59 0.63
0.81 0.82 0.75 0.80 0.84 0.76 0.68 0.64 0.69 0.74 0.86 0.87 1.22 1.09 1.19 1.07 0.77 0.52 0.68 0.70 0.76 0.81 0.64 0.47 0.42 0.43 0.57
0.68 0.61 0.70 0.74 0.73 0.84 1.07 0.97 1.04 0.84 0.70 0.63 0.77 0.96 0.94 0.59 0.87 0.74 0.60 1.07 1.04 1.09 1.05 0.62 0.49 0.40 0.31
0.57 0.62 0.72 0.81 0.83 0.94 1.22 1.17 1.03 0.77 0.62 0.47 0.39 0.40 0.48 0.60 0.68 0.65 0.87 0.84 1.10 1.48 1.28 0.85 0.69 0.55 0.42
0.62 0.69 0.85 0.93 1.11 1.22 1.24 1.05 0.86 0.62 0.54 0.42 0.37 0.37 0.33 0.30 0.61 0.92 0.82 0.91 1.19 1.36 1.37 0.81 0.76 0.81 0.63
0.93 0.94 1.01 1.09 1.15 1.17 0.95 0.72 0.52 0.37 0.21 0.16 0.34 0.59 0.70 0.31 0.29 0.70 1.21 1.07 0.83 0.88 0.91 0.64 0.73 0.88 0.69

GFSFLT2_prec_precacc_120.txt.gz
Total_Precipitation_Accumulation
0.55 0.47 0.35 0.25 0.16 0.13 0.10 0.06 0.05 0.07 0.08 0.10 0.14 0.15 0.15 0.15 0.18 0.22 0.30 0.39 0.49 0.59 0.73 0.89 1.09 1.18 1.12
0.26 0.24 0.19 0.17 0.14 0.14 0.13 0.13 0.14 0.13 0.14 0.13 0.15 0.18 0.22 0.23 0.23 0.25 0.25 0.29 0.36 0.50 0.59 0.66 0.74 0.87 1.03
0.27 0.18 0.12 0.13 0.16 0.21 0.21 0.19 0.18 0.24 0.28 0.27 0.29 0.33 0.37 0.37 0.37 0.43 0.51 0.54 0.54 0.51 0.56 0.66 0.78 0.89 0.93
0.44 0.32 0.25 0.23 0.29 0.31 0.26 0.26 0.29 0.30 0.34 0.33 0.32 0.32 0.33 0.38 0.43 0.45 0.46 0.48 0.54 0.62 0.70 0.71 0.72 0.77 0.87
0.69 0.63 0.59 0.47 0.41 0.41 0.47 0.39 0.33 0.25 0.22 0.24 0.30 0.34 0.34 0.36 0.40 0.37 0.41 0.51 0.60 0.65 0.68 0.78 0.85 0.92 0.92
0.96 0.74 0.47 0.43 0.40 0.48 0.62 0.75 0.66 0.30 0.29 0.37 0.43 0.49 0.47 0.47 0.45 0.43 0.44 0.46 0.50 0.56 0.66 0.70 0.71 0.77 0.87
0.52 0.45 0.42 0.38 0.56 0.69 0.69 0.79 0.68 0.36 0.41 0.50 0.38 0.41 0.41 0.46 0.54 0.47 0.48 0.48 0.49 0.52 0.56 0.59 0.60 0.66 0.74
0.33 0.37 0.47 0.59 0.84 1.16 1.14 1.03 0.72 0.47 0.43 0.57 0.32 0.35 0.38 0.44 0.57 0.47 0.40 0.42 0.46 0.49 0.50 0.53 0.58 0.64 0.64
0.39 0.46 0.44 0.39 0.42 0.78 0.92 0.85 0.75 0.41 0.33 0.45 0.37 0.37 0.41 0.39 0.45 0.46 0.42 0.45 0.51 0.53 0.53 0.59 0.63 0.65 0.64
0.35 0.39 0.39 0.38 0.44 0.50 0.95 1.63 1.14 0.91 0.38 0.84 0.65 0.55 0.90 0.38 0.39 0.53 0.49 0.43 0.42 0.41 0.40 0.41 0.47 0.49 0.53
0.33 0.37 0.39 0.40 0.45 0.61 0.98 1.82 2.07 1.47 0.56 1.44 1.48 0.64 1.03 0.58 0.41 0.50 0.42 0.45 0.47 0.45 0.41 0.39 0.37 0.40 0.61
0.47 0.52 0.51 0.52 0.59 0.66 0.72 0.85 1.04 1.42 0.85 1.10 1.99 0.97 1.25 0.88 0.53 0.55 0.54 0.49 0.53 0.46 0.39 0.44 0.53 0.59 0.63
0.81 0.82 0.75 0.80 0.84 0.76 0.68 0.64 0.69 0.74 0.86 0.87 1.22 1.09 1.19 1.07 0.77 0.52 0.68 0.70 0.76 0.81 0.64 0.47 0.42 0.43 0.57
0.68 0.61 0.70 0.74 0.73 0.84 1.07 0.97 1.04 0.84 0.70 0.63 0.77 0.96 0.94 0.59 0.87 0.74 0.60 1.07 1.04 1.09 1.05 0.62 0.49 0.40 0.31
0.57 0.62 0.72 0.81 0.83 0.94 1.22 1.17 1.03 0.77 0.62 0.47 0.39 0.40 0.48 0.60 0.68 0.65 0.87 0.84 1.10 1.48 1.28 0.85 0.69 0.55 0.42
0.62 0.69 0.85 0.93 1.11 1.22 1.24 1.05 0.86 0.62 0.54 0.42 0.37 0.37 0.33 0.30 0.61 0.92 0.82 0.91 1.19 1.36 1.37 0.81 0.76 0.81 0.63
0.93 0.94 1.01 1.09 1.15 1.17 0.95 0.72 0.52 0.37 0.21 0.16 0.34 0.59 0.70 0.31 0.29 0.70 1.21 1.07 0.83 0.88 0.91 0.64 0.73 0.88 0.69

GFSFLT2_prec_precacc_123.txt.gz
Total_Precipitation_Accumulation
0.55 0.47 0.35 0.25 0.16 0.13 0.10 0.06 0.05 0.07 0.08 0.10 0.14 0.15 0.15 0.16 0.18 0.22 0.30 0.40 0.49 0.59 0.73 0.90 1.10 1.18 1.12
0.26 0.24 0.19 0.17 0.14 0.14 0.13 0.13 0.14 0.13 0.14 0.13 0.15 0.18 0.22 0.23 0.25 0.26 0.26 0.29 0.37 0.50 0.60 0.67 0.75 0.88 1.03
0.27 0.18 0.12 0.13 0.16 0.21 0.21 0.19 0.18 0.25 0.29 0.28 0.30 0.34 0.38 0.39 0.38 0.44 0.52 0.54 0.54 0.51 0.56 0.66 0.78 0.89 0.93
0.44 0.32 0.25 0.23 0.29 0.31 0.26 0.26 0.29 0.30 0.35 0.34 0.33 0.32 0.34 0.39 0.44 0.46 0.46 0.48 0.54 0.62 0.70 0.71 0.72 0.77 0.87
0.69 0.63 0.59 0.47 0.41 0.41 0.47 0.39 0.33 0.25 0.22 0.25 0.31 0.35 0.35 0.37 0.41 0.38 0.41 0.51 0.60 0.65 0.68 0.78 0.85 0.92 0.92
0.96 0.74 0.47 0.43 0.40 0.48 0.62 0.75 0.66 0.30 0.29 0.37 0.43 0.50 0.48 0.48 0.47 0.45 0.45 0.46 0.50 0.56 0.66 0.70 0.71 0.77 0.87
0.52 0.45 0.42 0.38 0.56 0.69 0.69 0.79 0.68 0.36 0.42 0.51 0.41 0.43 0.43 0.47 0.55 0.47 0.49 0.48 0.49 0.52 0.56 0.59 0.60 0.66 0.74
0.33 0.37 0.47 0.59 0.84 1.16 1.14 1.03 0.72 0.47 0.43 0.57 0.32 0.36 0.38 0.45 0.59 0.47 0.41 0.42 0.46 0.49 0.50 0.53 0.58 0.64 0.64
0.39 0.46 0.44 0.39 0.42 0.78 0.92 0.85 0.75 0.41 0.33 0.46 0.38 0.39 0.42 0.41 0.46 0.46 0.42 0.45 0.51 0.53 0.53 0.59 0.63 0.65 0.64
0.35 0.39 0.39 0.38 0.44 0.50 0.95 1.63 1.14 0.91 0.39 0.85 0.65 0.56 0.91 0.38 0.39 0.53 0.49 0.43 0.42 0.41 0.40 0.41 0.47 0.49 0.53
0.33 0.37 0.39 0.40 0.45 0.61 0.98 1.82 2.07 1.47 0.56 1.44 1.48 0.64 1.03 0.58 0.41 0.50 0.42 0.45 0.47 0.45 0.41 0.39 0.37 0.41 0.61
0.47 0.52 0.51 0.52 0.59 0.66 0.72 0.85 1.04 1.42 0.85 1.10 1.99 0.97 1.25 0.88 0.53 0.55 0.54 0.49 0.53 0.46 0.39 0.44 0.53 0.60 0.63
0.81 0.82 0.75 0.80 0.84 0.76 0.68 0.64 0.69 0.74 0.86 0.87 1.22 1.09 1.19 1.07 0.77 0.52 0.68 0.70 0.76 0.81 0.64 0.47 0.42 0.43 0.57
0.68 0.61 0.70 0.74 0.73 0.84 1.07 0.97 1.04 0.84 0.70 0.63 0.77 0.96 0.94 0.59 0.87 0.74 0.60 1.07 1.04 1.09 1.05 0.62 0.49 0.40 0.31
0.57 0.62 0.72 0.81 0.83 0.94 1.22 1.17 1.03 0.77 0.62 0.47 0.39 0.40 0.48 0.60 0.68 0.65 0.87 0.84 1.10 1.48 1.28 0.85 0.69 0.55 0.42
0.62 0.69 0.85 0.93 1.11 1.22 1.24 1.05 0.86 0.62 0.54 0.42 0.37 0.37 0.33 0.30 0.61 0.92 0.82 0.91 1.19 1.36 1.37 0.81 0.76 0.81 0.63
0.93 0.94 1.01 1.09 1.15 1.17 0.95 0.72 0.52 0.37 0.21 0.16 0.34 0.59 0.70 0.31 0.29 0.70 1.21 1.07 0.83 0.88 0.91 0.64 0.73 0.88 0.69

GFSFLT2_prec_precacc_126.txt.gz
Total_Precipitation_Accumulation
0.55 0.47 0.35 0.25 0.16 0.13 0.10 0.06 0.05 0.07 0.08 0.10 0.15 0.16 0.16 0.16 0.20 0.23 0.30 0.40 0.49 0.59 0.73 0.90 1.12 1.20 1.13
0.26 0.24 0.19 0.17 0.14 0.14 0.13 0.13 0.14 0.13 0.14 0.13 0.15 0.19 0.23 0.25 0.27 0.29 0.28 0.30 0.37 0.50 0.60 0.67 0.76 0.88 1.03
0.27 0.18 0.12 0.13 0.16 0.21 0.21 0.19 0.18 0.25 0.29 0.29 0.30 0.34 0.39 0.39 0.39 0.46 0.54 0.55 0.55 0.51 0.56 0.66 0.78 0.89 0.93
0.44 0.32 0.25 0.23 0.29 0.31 0.26 0.26 0.29 0.30 0.35 0.34 0.34 0.33 0.35 0.40 0.45 0.46 0.47 0.49 0.55 0.63 0.70 0.71 0.72 0.77 0.87
0.69 0.63 0.59 0.47 0.41 0.41 0.47 0.39 0.33 0.25 0.22 0.25 0.31 0.35 0.36 0.39 0.42 0.40 0.43 0.53 0.61 0.66 0.68 0.78 0.85 0.92 0.92
0.96 0.74 0.47 0.43 0.40 0.48 0.62 0.75 0.66 0.30 0.29 0.37 0.43 0.50 0.48 0.48 0.49 0.46 0.47 0.48 0.51 0.57 0.66 0.70 0.71 0.77 0.87
0.52 0.45 0.42 0.38 0.56 0.69 0.69 0.79 0.68 0.36 0.42 0.51 0.41 0.44 0.44 0.50 0.59 0.50 0.50 0.49 0.49 0.52 0.56 0.59 0.60 0.66 0.74
0.33 0.37 0.47 0.59 0.84 1.16 1.14 1.03 0.72 0.47 0.43 0.57 0.32 0.36 0.39 0.47 0.62 0.49 0.42 0.43 0.47 0.49 0.50 0.53 0.58 0.64 0.64
0.39 0.46 0.44 0.39 0.42 0.78 0.92 0.85 0.75 0.41 0.33 0.46 0.38 0.39 0.43 0.41 0.47 0.48 0.43 0.45 0.51 0.53 0.53 0.59 0.63 0.65 0.64
0.35 0.39 0.39 0.38 0.44 0.50 0.95 1.63 1.14 0.91 0.39 0.85 0.65 0.57 0.91 0.39 0.40 0.54 0.49 0.43 0.42 0.41 0.40 0.41 0.48 0.49 0.53
0.33 0.37 0.39 0.40 0.45 0.61 0.98 1.82 2.07 1.47 0.56 1.44 1.48 0.64 1.03 0.58 0.41 0.50 0.42 0.45 0.47 0.45 0.41 0.39 0.37 0.41 0.61
0.47 0.52 0.51 0.52 0.59 0.66 0.72 0.85 1.04 1.42 0.85 1.10 1.99 0.97 1.25 0.88 0.53 0.55 0.54 0.49 0.53 0.46 0.39 0.44 0.54 0.60 0.63
0.81 0.82 0.75 0.80 0.84 0.76 0.68 0.64 0.69 0.74 0.86 0.87 1.22 1.09 1.19 1.07 0.77 0.52 0.68 0.70 0.76 0.81 0.64 0.47 0.42 0.43 0.57
0.68 0.61 0.70 0.74 0.73 0.84 1.07 0.97 1.04 0.84 0.70 0.63 0.77 0.96 0.94 0.59 0.87 0.74 0.60 1.07 1.04 1.09 1.05 0.62 0.49 0.40 0.31
0.57 0.62 0.72 0.81 0.83 0.94 1.22 1.17 1.03 0.77 0.62 0.47 0.39 0.40 0.48 0.60 0.68 0.65 0.87 0.84 1.10 1.48 1.28 0.85 0.69 0.55 0.42
0.62 0.69 0.85 0.93 1.11 1.22 1.24 1.05 0.86 0.62 0.54 0.42 0.37 0.37 0.33 0.30 0.61 0.92 0.82 0.91 1.19 1.36 1.37 0.81 0.76 0.81 0.63
0.93 0.94 1.01 1.09 1.15 1.17 0.95 0.72 0.52 0.37 0.21 0.16 0.34 0.59 0.70 0.31 0.29 0.70 1.21 1.07 0.83 0.88 0.91 0.64 0.73 0.88 0.69

GFSFLT2_prec_precacc_129.txt.gz
Total_Precipitation_Accumulation
0.55 0.47 0.35 0.25 0.16 0.13 0.10 0.06 0.05 0.07 0.08 0.10 0.15 0.16 0.17 0.17 0.22 0.24 0.31 0.40 0.49 0.59 0.73 0.90 1.12 1.20 1.13
0.26 0.24 0.19 0.17 0.14 0.14 0.13 0.13 0.14 0.13 0.15 0.13 0.16 0.20 0.24 0.26 0.28 0.30 0.30 0.31 0.37 0.50 0.60 0.68 0.76 0.88 1.03
0.27 0.18 0.12 0.13 0.16 0.21 0.21 0.19 0.18 0.25 0.29 0.29 0.30 0.34 0.39 0.40 0.40 0.47 0.55 0.57 0.57 0.52 0.56 0.66 0.78 0.89 0.93
0.44 0.32 0.25 0.23 0.29 0.31 0.26 0.26 0.29 0.30 0.35 0.34 0.34 0.34 0.35 0.41 0.46 0.48 0.48 0.50 0.56 0.64 0.70 0.72 0.72 0.77 0.87
0.69 0.63 0.59 0.47 0.41 0.41 0.47 0.39 0.33 0.25 0.22 0.25 0.31 0.35 0.36 0.39 0.42 0.40 0.43 0.54 0.62 0.67 0.69 0.79 0.85 0.92 0.92
0.96 0.74 0.47 0.43 0.40 0.48 0.62 0.75 0.66 0.30 0.29 0.37 0.43 0.50 0.48 0.49 0.52 0.48 0.48 0.49 0.52 0.57 0.66 0.70 0.71 0.77 0.87
0.52 0.45 0.42 0.38 0.56 0.69 0.69 0.79 0.68 0.36 0.42 0.51 0.41 0.44 0.44 0.51 0.61 0.52 0.53 0.51 0.51 0.53 0.56 0.59 0.60 0.66 0.74
0.33 0.37 0.47 0.59 0.84 1.16 1.14 1.03 0.72 0.47 0.43 0.57 0.32 0.36 0.39 0.47 0.63 0.51 0.44 0.45 0.48 0.49 0.50 0.53 0.58 0.64 0.64
0.39 0.46 0.44 0.39 0.42 0.78 0.92 0.85 0.75 0.41 0.33 0.46 0.38 0.39 0.43 0.41 0.47 0.50 0.44 0.46 0.51 0.53 0.53 0.59 0.63 0.65 0.64
0.35 0.39 0.39 0.38 0.44 0.50 0.95 1.63 1.14 0.91 0.39 0.85 0.65 0.57 0.91 0.39 0.40 0.54 0.50 0.44 0.42 0.41 0.40 0.41 0.48 0.49 0.53
0.33 0.37 0.39 0.40 0.45 0.61 0.98 1.82 2.07 1.47 0.56 1.44 1.48 0.64 1.03 0.58 0.41 0.50 0.42 0.45 0.47 0.45 0.41 0.39 0.37 0.41 0.61
0.47 0.52 0.51 0.52 0.59 0.66 0.72 0.85 1.04 1.42 0.85 1.10 1.99 0.97 1.25 0.88 0.53 0.55 0.54 0.49 0.53 0.46 0.39 0.44 0.54 0.60 0.64
0.81 0.82 0.75 0.80 0.84 0.76 0.68 0.64 0.69 0.74 0.86 0.87 1.22 1.09 1.19 1.07 0.77 0.52 0.68 0.70 0.76 0.81 0.64 0.47 0.42 0.43 0.57
0.68 0.61 0.70 0.74 0.73 0.84 1.07 0.97 1.04 0.84 0.70 0.63 0.77 0.96 0.94 0.59 0.87 0.74 0.60 1.07 1.04 1.09 1.05 0.62 0.49 0.40 0.31
0.57 0.62 0.72 0.81 0.83 0.94 1.22 1.17 1.03 0.77 0.62 0.47 0.39 0.40 0.48 0.60 0.68 0.65 0.87 0.84 1.10 1.48 1.28 0.85 0.69 0.55 0.42
0.62 0.69 0.85 0.93 1.11 1.22 1.24 1.05 0.86 0.62 0.54 0.42 0.37 0.37 0.33 0.30 0.61 0.92 0.82 0.91 1.19 1.36 1.37 0.81 0.76 0.81 0.63
0.93 0.94 1.01 1.09 1.15 1.17 0.95 0.72 0.52 0.37 0.21 0.16 0.34 0.59 0.70 0.31 0.29 0.70 1.21 1.07 0.83 0.88 0.91 0.64 0.73 0.88 0.69

GFSFLT2_prec_precacc_132.txt.gz
Total_Precipitation_Accumulation
0.55 0.47 0.35 0.25 0.16 0.13 0.10 0.06 0.05 0.07 0.08 0.10 0.15 0.17 0.17 0.18 0.23 0.28 0.32 0.40 0.49 0.60 0.73 0.91 1.12 1.20 1.13
0.26 0.24 0.19 0.17 0.14 0.14 0.13 0.13 0.14 0.13 0.15 0.14 0.16 0.20 0.24 0.26 0.29 0.32 0.33 0.35 0.39 0.51 0.60 0.70 0.77 0.88 1.03
0.27 0.18 0.12 0.13 0.16 0.21 0.21 0.19 0.18 0.25 0.29 0.29 0.30 0.34 0.39 0.40 0.40 0.48 0.58 0.59 0.58 0.54 0.58 0.69 0.79 0.89 0.93
0.44 0.32 0.25 0.23 0.29 0.31 0.26 0.26 0.29 0.30 0.35 0.34 0.34 0.34 0.35 0.41 0.46 0.49 0.49 0.52 0.59 0.66 0.72 0.72 0.73 0.77 0.87
0.69 0.63 0.59 0.47 0.41 0.41 0.47 0.39 0.33 0.25 0.22 0.25 0.31 0.35 0.36 0.40 0.42 0.40 0.44 0.55 0.62 0.68 0.71 0.80 0.86 0.92 0.92
0.96 0.74 0.47 0.43 0.40 0.48 0.62 0.75 0.66 0.30 0.29 0.37 0.43 0.50 0.48 0.49 0.53 0.48 0.48 0.50 0.53 0.58 0.67 0.71 0.72 0.77 0.87
0.52 0.45 0.42 0.38 0.56 0.69 0.69 0.79 0.68 0.36 0.42 0.51 0.41 0.44 0.44 0.51 0.62 0.52 0.53 0.51 0.51 0.54 0.57 0.60 0.60 0.66 0.74
0.33 0.37 0.47 0.59 0.84 1.16 1.14 1.03 0.72 0.47 0.43 0.57 0.32 0.36 0.39 0.47 0.63 0.51 0.44 0.45 0.49 0.50 0.52 0.54 0.58 0.64 0.64
0.39 0.46 0.44 0.39 0.42 0.78 0.92 0.85 0.75 0.41 0.33 0.46 0.38 0.39 0.43 0.41 0.47 0.50 0.44 0.47 0.52 0.54 0.53 0.59 0.63 0.65 0.64
0.35 0.39 0.39 0.38 0.44 0.50 0.95 1.63 1.14 0.91 0.39 0.85 0.65 0.57 0.91 0.39 0.40 0.54 0.50 0.45 0.43 0.41 0.40 0.42 0.48 0.49 0.53
0.33 0.37 0.39 0.40 0.45 0.61 0.98 1.82 2.07 1.47 0.56 1.44 1.48 0.64 1.03 0.58 0.41 0.50 0.42 0.45 0.47 0.45 0.41 0.39 0.37 0.41 0.61
0.47 0.52 0.51 0.52 0.59 0.66 0.72 0.85 1.04 1.42 0.85 1.10 1.99 0.97 1.25 0.88 0.53 0.55 0.54 0.49 0.53 0.46 0.39 0.44 0.54 0.60 0.64
0.81 0.82 0.75 0.80 0.84 0.76 0.68 0.64 0.69 0.74 0.86 0.87 1.22 1.09 1.19 1.07 0.77 0.52 0.68 0.70 0.76 0.81 0.64 0.47 0.42 0.43 0.58
0.68 0.61 0.70 0.74 0.73 0.84 1.07 0.97 1.04 0.84 0.70 0.63 0.77 0.96 0.94 0.59 0.87 0.74 0.60 1.07 1.04 1.09 1.05 0.62 0.49 0.40 0.31
0.57 0.62 0.72 0.81 0.83 0.94 1.22 1.17 1.03 0.77 0.62 0.47 0.39 0.40 0.48 0.60 0.68 0.65 0.87 0.84 1.10 1.48 1.28 0.85 0.69 0.55 0.42
0.62 0.69 0.85 0.93 1.11 1.22 1.24 1.05 0.86 0.62 0.54 0.42 0.37 0.37 0.33 0.30 0.61 0.92 0.82 0.91 1.19 1.36 1.37 0.81 0.76 0.81 0.63
0.93 0.94 1.01 1.09 1.15 1.17 0.95 0.72 0.52 0.37 0.21 0.16 0.34 0.59 0.70 0.31 0.29 0.70 1.21 1.07 0.83 0.88 0.91 0.64 0.73 0.88 0.69

GFSFLT2_prec_precacc_138.txt.gz
Total_Precipitation_Accumulation
0.55 0.47 0.35 0.25 0.16 0.13 0.10 0.06 0.05 0.07 0.08 0.10 0.15 0.17 0.17 0.18 0.23 0.28 0.35 0.42 0.51 0.62 0.75 0.93 1.14 1.21 1.18
0.26 0.24 0.19 0.17 0.14 0.14 0.13 0.13 0.14 0.13 0.15 0.14 0.16 0.21 0.25 0.26 0.29 0.33 0.36 0.40 0.41 0.51 0.60 0.72 0.79 0.89 1.03
0.27 0.18 0.12 0.13 0.16 0.21 0.21 0.19 0.18 0.25 0.29 0.29 0.30 0.34 0.39 0.40 0.40 0.48 0.58 0.63 0.63 0.57 0.59 0.71 0.84 0.91 0.94
0.44 0.32 0.26 0.23 0.29 0.31 0.26 0.26 0.29 0.30 0.35 0.34 0.34 0.34 0.35 0.41 0.46 0.49 0.49 0.53 0.60 0.69 0.76 0.74 0.77 0.80 0.88
0.71 0.65 0.60 0.47 0.41 0.41 0.47 0.39 0.33 0.25 0.22 0.25 0.31 0.35 0.36 0.40 0.42 0.40 0.44 0.55 0.65 0.70 0.73 0.84 0.92 0.95 0.94
0.97 0.75 0.47 0.44 0.41 0.48 0.62 0.75 0.66 0.30 0.29 0.37 0.43 0.50 0.48 0.49 0.53 0.48 0.49 0.51 0.54 0.61 0.69 0.76 0.78 0.80 0.88
0.58 0.49 0.45 0.42 0.59 0.71 0.69 0.79 0.68 0.36 0.42 0.51 0.41 0.44 0.44 0.51 0.62 0.52 0.53 0.52 0.52 0.55 0.58 0.61 0.61 0.67 0.75
0.47 0.49 0.58 0.67 0.87 1.17 1.14 1.03 0.72 0.47 0.43 0.57 0.32 0.36 0.39 0.47 0.63 0.51 0.44 0.45 0.49 0.51 0.53 0.55 0.61 0.66 0.64
0.60 0.63 0.57 0.46 0.44 0.78 0.92 0.85 0.75 0.41 0.33 0.46 0.38 0.39 0.43 0.41 0.47 0.50 0.44 0.47 0.53 0.54 0.54 0.60 0.64 0.67 0.65
0.53 0.53 0.46 0.42 0.46 0.50 0.95 1.63 1.14 0.91 0.39 0.85 0.65 0.57 0.91 0.39 0.40 0.54 0.50 0.45 0.43 0.41 0.41 0.43 0.48 0.50 0.53
0.47 0.44 0.42 0.41 0.45 0.61 0.98 1.82 2.07 1.47 0.56 1.44 1.48 0.64 1.03 0.58 0.41 0.50 0.42 0.45 0.47 0.45 0.41 0.40 0.38 0.41 0.61
0.51 0.54 0.52 0.53 0.60 0.66 0.72 0.85 1.04 1.42 0.85 1.10 1.99 0.97 1.25 0.88 0.53 0.55 0.54 0.49 0.53 0.46 0.39 0.44 0.54 0.60 0.64
0.85 0.85 0.79 0.85 0.87 0.77 0.69 0.64 0.69 0.74 0.86 0.87 1.22 1.09 1.19 1.07 0.77 0.52 0.68 0.70 0.76 0.81 0.64 0.47 0.42 0.43 0.58
0.80 0.74 0.82 0.82 0.76 0.85 1.07 0.97 1.04 0.84 0.70 0.63 0.77 0.96 0.94 0.59 0.87 0.74 0.60 1.07 1.04 1.09 1.05 0.62 0.49 0.40 0.31
0.67 0.74 0.82 0.87 0.87 0.96 1.22 1.17 1.03 0.77 0.62 0.47 0.39 0.40 0.48 0.60 0.68 0.65 0.87 0.84 1.10 1.48 1.28 0.85 0.69 0.55 0.42
0.72 0.77 0.93 0.98 1.16 1.25 1.25 1.05 0.86 0.62 0.54 0.42 0.37 0.37 0.33 0.30 0.61 0.92 0.82 0.91 1.19 1.36 1.37 0.81 0.76 0.81 0.63
1.21 1.18 1.19 1.21 1.23 1.20 0.95 0.72 0.52 0.37 0.21 0.16 0.34 0.59 0.70 0.31 0.29 0.70 1.21 1.07 0.83 0.88 0.91 0.64 0.73 0.88 0.69

GFSFLT2_prec_precacc_141.txt.gz
Total_Precipitation_Accumulation
0.55 0.47 0.35 0.25 0.16 0.13 0.10 0.06 0.05 0.07 0.08 0.10 0.15 0.17 0.17 0.18 0.23 0.28 0.35 0.43 0.52 0.62 0.76 0.93 1.14 1.21 1.21
0.26 0.24 0.19 0.17 0.14 0.14 0.13 0.13 0.14 0.13 0.15 0.14 0.16 0.21 0.25 0.26 0.29 0.33 0.36 0.41 0.41 0.51 0.60 0.73 0.80 0.90 1.04
0.28 0.18 0.12 0.13 0.16 0.21 0.21 0.19 0.18 0.25 0.29 0.29 0.30 0.34 0.39 0.40 0.40 0.48 0.58 0.63 0.63 0.59 0.61 0.72 0.85 0.91 0.94
0.45 0.33 0.26 0.23 0.29 0.31 0.27 0.26 0.29 0.30 0.35 0.34 0.34 0.34 0.35 0.41 0.46 0.49 0.49 0.53 0.60 0.69 0.76 0.75 0.78 0.81 0.89
0.72 0.66 0.61 0.48 0.42 0.42 0.48 0.40 0.33 0.25 0.22 0.25 0.31 0.35 0.36 0.40 0.42 0.40 0.44 0.55 0.65 0.70 0.73 0.85 0.94 0.96 0.94
0.98 0.75 0.48 0.45 0.42 0.50 0.65 0.77 0.67 0.31 0.29 0.37 0.43 0.50 0.48 0.49 0.53 0.48 0.49 0.51 0.55 0.61 0.70 0.76 0.80 0.83 0.89
0.61 0.50 0.47 0.44 0.64 0.77 0.75 0.84 0.71 0.37 0.42 0.51 0.41 0.44 0.44 0.51 0.62 0.52 0.53 0.52 0.52 0.55 0.58 0.62 0.62 0.70 0.78
0.54 0.54 0.63 0.73 0.95 1.26 1.23 1.12 0.78 0.48 0.43 0.57 0.32 0.36 0.39 0.47 0.63 0.51 0.44 0.45 0.49 0.51 0.53 0.55 0.61 0.67 0.66
0.71 0.76 0.71 0.61 0.58 0.91 1.01 0.90 0.77 0.42 0.34 0.46 0.38 0.39 0.43 0.41 0.47 0.50 0.44 0.47 0.53 0.54 0.54 0.60 0.64 0.67 0.66
0.60 0.64 0.63 0.58 0.61 0.59 1.02 1.69 1.18 0.93 0.39 0.85 0.65 0.57 0.91 0.39 0.40 0.54 0.50 0.45 0.43 0.41 0.41 0.43 0.48 0.50 0.53
0.72 0.70 0.65 0.60 0.61 0.72 1.04 1.86 2.10 1.48 0.56 1.44 1.48 0.64 1.03 0.58 0.41 0.50 0.42 0.45 0.47 0.45 0.41 0.40 0.38 0.41 0.61
0.67 0.73 0.70 0.68 0.73 0.78 0.82 0.92 1.07 1.42 0.85 1.10 1.99 0.97 1.25 0.88 0.53 0.55 0.54 0.49 0.53 0.46 0.39 0.44 0.54 0.60 0.64
0.99 0.94 0.88 0.97 1.01 0.89 0.77 0.70 0.73 0.78 0.89 0.89 1.23 1.09 1.19 1.07 0.77 0.52 0.68 0.70 0.76 0.81 0.64 0.47 0.42 0.43 0.58
1.06 0.99 1.08 1.06 0.93 0.96 1.18 1.06 1.12 0.91 0.74 0.65 0.78 0.96 0.94 0.59 0.87 0.74 0.60 1.07 1.04 1.09 1.05 0.62 0.49 0.40 0.31
0.85 0.91 1.04 1.12 1.05 1.08 1.34 1.26 1.09 0.79 0.63 0.47 0.39 0.40 0.48 0.60 0.68 0.65 0.87 0.84 1.10 1.48 1.28 0.85 0.69 0.55 0.42
0.90 0.97 1.17 1.22 1.31 1.38 1.39 1.16 0.92 0.65 0.55 0.42 0.37 0.37 0.33 0.30 0.61 0.92 0.82 0.91 1.19 1.36 1.37 0.81 0.76 0.81 0.63
1.46 1.38 1.37 1.42 1.45 1.39 1.09 0.81 0.58 0.40 0.23 0.17 0.34 0.59 0.70 0.31 0.29 0.70 1.21 1.07 0.83 0.88 0.91 0.64 0.73 0.88 0.69

GFSFLT2_prec_precacc_144.txt.gz
Total_Precipitation_Accumulation
0.55 0.47 0.35 0.25 0.16 0.13 0.10 0.06 0.05 0.07 0.08 0.10 0.15 0.17 0.17 0.18 0.23 0.28 0.35 0.43 0.52 0.62 0.77 0.93 1.14 1.21 1.23
0.26 0.24 0.19 0.17 0.14 0.14 0.13 0.13 0.14 0.13 0.15 0.14 0.16 0.21 0.25 0.26 0.29 0.33 0.36 0.41 0.41 0.51 0.60 0.73 0.81 0.91 1.08
0.29 0.18 0.12 0.13 0.16 0.21 0.21 0.19 0.18 0.25 0.29 0.29 0.30 0.34 0.39 0.40 0.40 0.48 0.58 0.63 0.63 0.59 0.61 0.73 0.86 0.93 0.96
0.46 0.34 0.27 0.24 0.30 0.31 0.27 0.28 0.31 0.30 0.36 0.34 0.34 0.34 0.35 0.41 0.46 0.49 0.49 0.53 0.60 0.69 0.77 0.77 0.79 0.81 0.89
0.74 0.67 0.62 0.49 0.44 0.45 0.51 0.42 0.34 0.26 0.22 0.25 0.31 0.35 0.36 0.40 0.42 0.40 0.44 0.55 0.65 0.70 0.73 0.85 0.94 0.97 0.94
1.02 0.77 0.50 0.48 0.47 0.54 0.69 0.79 0.68 0.31 0.30 0.38 0.44 0.50 0.48 0.49 0.53 0.48 0.49 0.51 0.55 0.61 0.70 0.76 0.80 0.84 0.90
0.72 0.55 0.49 0.47 0.71 0.85 0.79 0.87 0.74 0.41 0.46 0.56 0.44 0.45 0.44 0.51 0.62 0.52 0.53 0.52 0.52 0.55 0.58 0.62 0.62 0.71 0.80
0.66 0.61 0.67 0.77 0.99 1.30 1.30 1.21 0.89 0.57 0.47 0.60 0.32 0.36 0.39 0.47 0.63 0.51 0.44 0.45 0.49 0.51 0.53 0.56 0.62 0.68 0.67
0.75 0.80 0.74 0.64 0.63 0.97 1.11 1.01 0.90 0.51 0.39 0.51 0.41 0.40 0.44 0.42 0.47 0.50 0.44 0.47 0.53 0.54 0.54 0.60 0.64 0.67 0.66
0.62 0.66 0.65 0.61 0.63 0.62 1.05 1.74 1.25 1.01 0.46 0.90 0.69 0.60 0.93 0.39 0.40 0.54 0.50 0.45 0.43 0.42 0.41 0.43 0.49 0.50 0.53
0.73 0.71 0.67 0.63 0.64 0.76 1.09 1.91 2.16 1.56 0.62 1.52 1.55 0.67 1.04 0.58 0.41 0.50 0.42 0.45 0.47 0.45 0.42 0.40 0.38 0.42 0.61
0.71 0.77 0.74 0.74 0.80 0.90 1.00 1.12 1.26 1.58 0.95 1.18 2.03 1.00 1.26 0.88 0.53 0.55 0.54 0.49 0.53 0.46 0.39 0.45 0.54 0.60 0.64
1.05 1.01 0.95 1.05 1.11 1.05 0.96 0.87 0.86 0.89 0.99 0.95 1.28 1.13 1.21 1.08 0.77 0.52 0.68 0.70 0.76 0.81 0.64 0.47 0.42 0.43 0.58
1.12 1.09 1.19 1.21 1.12 1.16 1.34 1.18 1.23 1.01 0.82 0.72 0.84 1.01 0.99 0.62 0.88 0.74 0.60 1.07 1.04 1.09 1.05 0.62 0.49 0.40 0.31
0.92 1.00 1.14 1.28 1.29 1.35 1.59 1.48 1.28 0.96 0.78 0.60 0.49 0.47 0.52 0.62 0.69 0.66 0.87 0.84 1.10 1.48 1.28 0.85 0.69 0.55 0.42
0.92 1.03 1.26 1.36 1.52 1.61 1.64 1.44 1.21 0.90 0.76 0.60 0.50 0.45 0.37 0.32 0.61 0.92 0.82 0.91 1.19 1.36 1.37 0.81 0.76 0.81 0.63
1.47 1.41 1.42 1.52 1.65 1.66 1.43 1.19 0.96 0.72 0.49 0.37 0.50 0.69 0.76 0.34 0.30 0.70 1.21 1.07 0.83 0.88 0.91 0.64 0.73 0.88 0.69

GFSFLT2_prec_precacc_147.txt.gz
Total_Precipitation_Accumulation
0.56 0.47 0.35 0.25 0.16 0.13 0.10 0.06 0.05 0.07 0.08 0.10 0.15 0.17 0.17 0.18 0.23 0.28 0.35 0.43 0.52 0.63 0.77 0.94 1.15 1.21 1.24
0.28 0.24 0.19 0.17 0.14 0.14 0.13 0.13 0.14 0.13 0.15 0.14 0.16 0.21 0.25 0.26 0.29 0.33 0.36 0.41 0.41 0.51 0.60 0.73 0.81 0.91 1.08
0.35 0.20 0.12 0.13 0.16 0.21 0.21 0.19 0.19 0.25 0.29 0.29 0.30 0.34 0.39 0.40 0.40 0.48 0.58 0.63 0.63 0.59 0.61 0.73 0.86 0.93 0.96
0.62 0.40 0.28 0.24 0.30 0.32 0.28 0.29 0.34 0.33 0.37 0.35 0.34 0.34 0.35 0.41 0.46 0.49 0.49 0.53 0.60 0.69 0.77 0.77 0.79 0.81 0.90
0.89 0.75 0.64 0.50 0.45 0.49 0.57 0.49 0.39 0.27 0.23 0.26 0.31 0.35 0.36 0.40 0.42 0.40 0.44 0.55 0.65 0.70 0.73 0.85 0.94 0.98 0.95
1.13 0.86 0.53 0.49 0.51 0.61 0.78 0.87 0.73 0.31 0.30 0.39 0.44 0.51 0.49 0.49 0.54 0.49 0.49 0.51 0.55 0.61 0.70 0.76 0.80 0.84 0.92
0.88 0.69 0.58 0.51 0.77 0.96 0.91 0.96 0.80 0.43 0.47 0.57 0.45 0.47 0.46 0.53 0.64 0.53 0.53 0.52 0.52 0.55 0.58 0.62 0.62 0.71 0.80
0.89 0.75 0.80 0.91 1.17 1.44 1.42 1.36 1.04 0.65 0.51 0.63 0.34 0.37 0.40 0.47 0.64 0.51 0.44 0.45 0.49 0.51 0.53 0.56 0.62 0.68 0.68
0.99 0.96 0.86 0.72 0.71 1.08 1.29 1.18 1.02 0.54 0.40 0.52 0.43 0.43 0.47 0.44 0.49 0.52 0.45 0.47 0.53 0.54 0.54 0.60 0.65 0.68 0.67
0.68 0.73 0.72 0.69 0.82 0.76 1.11 1.77 1.27 1.02 0.47 0.91 0.71 0.62 0.96 0.42 0.41 0.55 0.51 0.46 0.45 0.42 0.41 0.44 0.49 0.50 0.53
0.73 0.71 0.67 0.64 0.67 0.82 1.18 2.02 2.23 1.61 0.65 1.57 1.58 0.72 1.11 0.62 0.43 0.52 0.45 0.47 0.49 0.45 0.42 0.40 0.38 0.42 0.61
0.71 0.77 0.75 0.75 0.82 0.94 1.07 1.29 1.45 1.72 1.06 1.33 2.14 1.09 1.37 0.98 0.62 0.60 0.59 0.53 0.56 0.47 0.39 0.45 0.54 0.61 0.65
1.06 1.02 0.96 1.07 1.14 1.09 1.02 0.94 0.98 1.04 1.17 1.12 1.41 1.25 1.34 1.23 0.87 0.58 0.75 0.75 0.78 0.81 0.64 0.47 0.42 0.43 0.58
1.12 1.09 1.20 1.23 1.16 1.21 1.42 1.27 1.35 1.14 0.95 0.84 0.95 1.13 1.10 0.70 0.94 0.81 0.67 1.11 1.05 1.09 1.05 0.62 0.49 0.40 0.31
0.92 1.00 1.14 1.28 1.30 1.37 1.65 1.59 1.43 1.12 0.93 0.77 0.69 0.65 0.68 0.76 0.81 0.76 0.97 0.92 1.14 1.51 1.30 0.86 0.69 0.55 0.42
0.92 1.03 1.26 1.36 1.53 1.62 1.67 1.50 1.31 1.06 0.98 0.87 0.82 0.81 0.73 0.61 0.81 1.07 0.94 1.00 1.25 1.40 1.38 0.81 0.76 0.81 0.63
1.47 1.41 1.42 1.53 1.67 1.67 1.45 1.23 1.03 0.83 0.68 0.64 0.85 1.10 1.20 0.72 0.57 0.88 1.33 1.16 0.89 0.92 0.93 0.64 0.73 0.88 0.69

GFSFLT2_prec_precacc_153.txt.gz
Total_Precipitation_Accumulation
0.57 0.47 0.36 0.26 0.16 0.14 0.10 0.07 0.05 0.07 0.08 0.10 0.16 0.18 0.18 0.18 0.23 0.28 0.35 0.43 0.52 0.63 0.77 0.94 1.15 1.22 1.24
0.39 0.33 0.25 0.21 0.18 0.19 0.17 0.17 0.16 0.14 0.16 0.16 0.19 0.23 0.27 0.28 0.30 0.33 0.36 0.41 0.41 0.51 0.60 0.73 0.81 0.91 1.09
0.62 0.45 0.31 0.26 0.29 0.32 0.30 0.27 0.23 0.27 0.32 0.31 0.33 0.38 0.41 0.41 0.41 0.49 0.59 0.63 0.63 0.59 0.61 0.73 0.86 0.93 0.97
0.74 0.60 0.43 0.31 0.40 0.43 0.36 0.36 0.39 0.36 0.39 0.37 0.37 0.37 0.37 0.42 0.47 0.49 0.50 0.53 0.60 0.69 0.77 0.77 0.79 0.81 0.90
0.97 0.89 0.76 0.55 0.51 0.56 0.69 0.57 0.43 0.29 0.24 0.26 0.32 0.37 0.38 0.40 0.42 0.40 0.44 0.55 0.65 0.70 0.73 0.85 0.94 0.98 0.95
1.15 0.89 0.57 0.51 0.52 0.65 0.86 0.95 0.79 0.32 0.30 0.40 0.45 0.52 0.49 0.49 0.54 0.50 0.50 0.52 0.55 0.61 0.70 0.77 0.81 0.86 0.93
0.90 0.72 0.62 0.56 0.83 1.05 1.01 1.05 0.85 0.44 0.49 0.60 0.47 0.47 0.46 0.53 0.64 0.53 0.54 0.52 0.53 0.56 0.59 0.62 0.63 0.71 0.80
1.12 0.98 1.02 1.12 1.38 1.59 1.53 1.44 1.10 0.71 0.58 0.70 0.36 0.39 0.41 0.48 0.65 0.53 0.47 0.48 0.52 0.54 0.55 0.58 0.63 0.69 0.68
1.37 1.37 1.33 1.27 1.26 1.54 1.64 1.49 1.23 0.63 0.46 0.63 0.50 0.48 0.50 0.46 0.50 0.56 0.50 0.51 0.58 0.59 0.58 0.62 0.67 0.70 0.70
0.82 0.86 0.82 0.81 1.05 1.05 1.43 2.09 1.47 1.13 0.51 0.99 0.75 0.66 1.01 0.43 0.41 0.56 0.55 0.52 0.52 0.49 0.48 0.50 0.54 0.54 0.56
0.74 0.71 0.67 0.64 0.68 0.87 1.29 2.28 2.49 1.80 0.79 1.85 1.70 0.80 1.21 0.72 0.48 0.53 0.46 0.53 0.64 0.62 0.59 0.55 0.50 0.51 0.66
0.71 0.78 0.75 0.75 0.82 0.94 1.09 1.33 1.58 1.89 1.19 1.58 2.35 1.22 1.52 1.16 0.76 0.67 0.64 0.63 0.74 0.73 0.67 0.78 0.94 0.95 0.88
1.06 1.02 0.96 1.07 1.14 1.10 1.03 0.96 1.02 1.11 1.29 1.29 1.63 1.46 1.59 1.50 1.08 0.74 0.89 0.91 0.98 1.08 0.94 0.81 0.75 0.73 0.87
1.12 1.09 1.20 1.23 1.16 1.21 1.42 1.27 1.35 1.15 0.98 0.91 1.08 1.31 1.32 0.93 1.16 1.01 0.84 1.30 1.28 1.36 1.36 0.95 0.83 0.71 0.56
0.92 1.00 1.14 1.28 1.30 1.37 1.65 1.59 1.43 1.12 0.93 0.78 0.73 0.74 0.83 0.94 1.00 0.94 1.11 1.06 1.27 1.66 1.54 1.23 1.12 0.94 0.73
0.92 1.03 1.26 1.36 1.53 1.62 1.67 1.50 1.32 1.07 0.98 0.87 0.83 0.84 0.84 0.80 1.03 1.27 1.14 1.20 1.46 1.64 1.68 1.16 1.13 1.18 0.96
1.47 1.41 1.42 1.53 1.68 1.68 1.46 1.24 1.04 0.84 0.69 0.66 0.88 1.16 1.32 0.84 0.73 1.12 1.61 1.48 1.26 1.36 1.38 1.06 1.08 1.19 0.98

GFSFLT2_prec_precacc_156.txt.gz
Total_Precipitation_Accumulation
0.57 0.47 0.36 0.26 0.16 0.14 0.10 0.07 0.06 0.07 0.09 0.10 0.16 0.18 0.18 0.18 0.23 0.28 0.35 0.43 0.52 0.63 0.77 0.94 1.15 1.22 1.24
0.39 0.33 0.25 0.21 0.18 0.19 0.17 0.17 0.16 0.15 0.17 0.16 0.19 0.23 0.27 0.28 0.30 0.33 0.36 0.41 0.42 0.52 0.61 0.73 0.81 0.91 1.09
0.62 0.45 0.31 0.26 0.29 0.32 0.30 0.27 0.23 0.28 0.32 0.31 0.33 0.38 0.41 0.41 0.41 0.49 0.59 0.64 0.66 0.61 0.63 0.73 0.86 0.93 0.97
0.74 0.60 0.43 0.32 0.40 0.44 0.36 0.36 0.39 0.36 0.41 0.38 0.38 0.37 0.37 0.42 0.47 0.49 0.50 0.54 0.62 0.71 0.79 0.79 0.80 0.82 0.90
0.99 0.90 0.78 0.57 0.52 0.57 0.70 0.58 0.45 0.31 0.28 0.29 0.33 0.38 0.38 0.41 0.42 0.40 0.45 0.57 0.67 0.72 0.76 0.88 0.97 0.99 0.95
1.15 0.90 0.57 0.52 0.53 0.65 0.87 0.97 0.80 0.33 0.31 0.40 0.45 0.52 0.49 0.49 0.55 0.52 0.52 0.54 0.57 0.62 0.71 0.78 0.82 0.87 0.95
0.91 0.72 0.63 0.57 0.84 1.05 1.01 1.05 0.86 0.44 0.49 0.60 0.47 0.48 0.47 0.54 0.65 0.54 0.55 0.54 0.56 0.60 0.61 0.63 0.63 0.72 0.81
1.17 1.05 1.07 1.15 1.40 1.63 1.56 1.46 1.12 0.74 0.65 0.79 0.39 0.41 0.42 0.49 0.67 0.55 0.48 0.50 0.54 0.56 0.57 0.59 0.64 0.70 0.69
1.43 1.49 1.45 1.33 1.31 1.57 1.70 1.56 1.30 0.69 0.53 0.72 0.54 0.50 0.51 0.46 0.50 0.57 0.51 0.53 0.61 0.64 0.64 0.69 0.72 0.74 0.74
0.99 1.00 0.92 0.89 1.13 1.11 1.48 2.15 1.53 1.19 0.56 1.03 0.78 0.68 1.02 0.43 0.41 0.56 0.55 0.52 0.53 0.50 0.50 0.54 0.61 0.66 0.68
0.83 0.80 0.74 0.68 0.71 0.90 1.31 2.30 2.51 1.82 0.81 1.87 1.71 0.80 1.21 0.72 0.48 0.53 0.46 0.53 0.65 0.62 0.61 0.58 0.56 0.62 0.76
0.74 0.79 0.76 0.75 0.82 0.94 1.09 1.33 1.58 1.89 1.19 1.58 2.35 1.22 1.52 1.16 0.76 0.67 0.64 0.63 0.74 0.73 0.68 0.81 1.03 1.07 1.06
1.06 1.02 0.96 1.07 1.14 1.10 1.03 0.96 1.02 1.11 1.29 1.29 1.63 1.46 1.59 1.50 1.08 0.74 0.89 0.91 0.98 1.08 0.95 0.81 0.76 0.77 0.97
1.12 1.09 1.20 1.23 1.16 1.21 1.42 1.27 1.35 1.15 0.98 0.91 1.08 1.31 1.32 0.93 1.16 1.01 0.84 1.30 1.28 1.36 1.36 0.96 0.84 0.73 0.61
0.92 1.00 1.14 1.28 1.30 1.37 1.65 1.59 1.44 1.12 0.93 0.78 0.73 0.75 0.84 0.94 1.01 0.94 1.11 1.06 1.27 1.66 1.54 1.24 1.13 0.95 0.77
0.92 1.03 1.26 1.36 1.53 1.62 1.67 1.50 1.32 1.07 0.98 0.87 0.83 0.84 0.84 0.80 1.03 1.27 1.14 1.20 1.46 1.64 1.68 1.17 1.14 1.20 1.00
1.47 1.41 1.42 1.53 1.68 1.68 1.46 1.24 1.04 0.84 0.69 0.66 0.88 1.17 1.32 0.85 0.73 1.12 1.61 1.48 1.26 1.36 1.38 1.08 1.12 1.22 1.02

GFSFLT2_prec_precacc_159.txt.gz
Total_Precipitation_Accumulation
0.57 0.47 0.36 0.26 0.16 0.14 0.10 0.07 0.06 0.07 0.09 0.10 0.16 0.18 0.18 0.18 0.23 0.28 0.35 0.43 0.53 0.63 0.77 0.94 1.16 1.22 1.24
0.39 0.33 0.25 0.21 0.18 0.19 0.17 0.17 0.16 0.15 0.17 0.16 0.19 0.23 0.27 0.28 0.30 0.33 0.36 0.41 0.42 0.52 0.62 0.75 0.83 0.93 1.09
0.62 0.45 0.31 0.26 0.29 0.32 0.30 0.27 0.23 0.28 0.32 0.31 0.33 0.38 0.41 0.41 0.41 0.49 0.59 0.64 0.66 0.61 0.64 0.76 0.89 0.94 0.98
0.75 0.61 0.43 0.32 0.40 0.44 0.36 0.36 0.39 0.36 0.41 0.38 0.38 0.37 0.37 0.42 0.47 0.49 0.50 0.54 0.62 0.71 0.79 0.81 0.83 0.84 0.93
1.00 0.92 0.79 0.57 0.52 0.57 0.70 0.58 0.45 0.31 0.28 0.30 0.35 0.41 0.41 0.43 0.44 0.41 0.45 0.59 0.68 0.74 0.76 0.89 0.99 1.03 1.00
1.16 0.90 0.58 0.52 0.53 0.65 0.87 0.97 0.80 0.33 0.31 0.41 0.46 0.53 0.49 0.50 0.57 0.55 0.55 0.56 0.60 0.67 0.77 0.85 0.89 0.93 1.01
0.93 0.73 0.64 0.58 0.84 1.05 1.02 1.05 0.86 0.44 0.49 0.60 0.47 0.48 0.47 0.54 0.65 0.55 0.56 0.55 0.58 0.63 0.67 0.71 0.71 0.78 0.85
1.21 1.10 1.11 1.17 1.41 1.65 1.57 1.46 1.13 0.74 0.65 0.81 0.40 0.42 0.42 0.50 0.68 0.57 0.49 0.51 0.56 0.59 0.61 0.63 0.68 0.73 0.71
1.44 1.53 1.48 1.36 1.33 1.59 1.72 1.58 1.33 0.71 0.54 0.75 0.55 0.51 0.51 0.47 0.50 0.58 0.52 0.54 0.62 0.66 0.66 0.70 0.74 0.77 0.76
1.00 1.03 0.96 0.93 1.19 1.16 1.54 2.21 1.60 1.27 0.61 1.07 0.81 0.70 1.03 0.44 0.41 0.57 0.55 0.53 0.53 0.50 0.50 0.54 0.61 0.67 0.69
0.88 0.87 0.84 0.81 0.84 1.02 1.41 2.38 2.58 1.88 0.85 1.89 1.72 0.80 1.21 0.72 0.48 0.53 0.46 0.53 0.65 0.62 0.61 0.58 0.56 0.63 0.77
0.86 0.90 0.85 0.82 0.88 0.97 1.10 1.33 1.58 1.89 1.19 1.58 2.35 1.22 1.52 1.16 0.76 0.67 0.64 0.63 0.74 0.73 0.68 0.81 1.03 1.07 1.06
1.12 1.06 0.98 1.07 1.15 1.10 1.03 0.96 1.02 1.11 1.29 1.29 1.63 1.46 1.59 1.50 1.08 0.74 0.89 0.91 0.98 1.08 0.95 0.81 0.76 0.77 0.97
1.12 1.09 1.20 1.23 1.16 1.21 1.42 1.27 1.35 1.15 0.98 0.91 1.08 1.31 1.32 0.93 1.16 1.01 0.84 1.30 1.28 1.36 1.36 0.96 0.84 0.73 0.61
0.92 1.00 1.14 1.28 1.30 1.37 1.65 1.59 1.44 1.12 0.93 0.78 0.73 0.75 0.84 0.94 1.01 0.94 1.11 1.06 1.27 1.66 1.54 1.24 1.13 0.95 0.77
0.92 1.03 1.26 1.36 1.53 1.62 1.67 1.50 1.32 1.07 0.98 0.87 0.83 0.84 0.84 0.80 1.03 1.27 1.14 1.20 1.46 1.64 1.68 1.17 1.14 1.20 1.00
1.47 1.41 1.42 1.53 1.68 1.68 1.46 1.24 1.04 0.84 0.69 0.66 0.88 1.17 1.33 0.85 0.73 1.12 1.61 1.48 1.26 1.36 1.38 1.08 1.12 1.22 1.02

GFSFLT2_prec_precacc_162.txt.gz
Total_Precipitation_Accumulation
0.58 0.48 0.36 0.26 0.16 0.14 0.10 0.07 0.06 0.07 0.09 0.10 0.16 0.18 0.18 0.18 0.23 0.28 0.35 0.43 0.54 0.64 0.78 0.95 1.17 1.22 1.25
0.40 0.34 0.26 0.22 0.18 0.20 0.17 0.17 0.16 0.15 0.17 0.16 0.19 0.23 0.27 0.28 0.30 0.33 0.36 0.41 0.42 0.53 0.62 0.77 0.85 0.94 1.10
0.63 0.46 0.32 0.26 0.29 0.32 0.30 0.27 0.23 0.28 0.32 0.31 0.33 0.38 0.41 0.41 0.41 0.49 0.59 0.64 0.66 0.62 0.64 0.76 0.90 0.96 0.99
0.76 0.61 0.44 0.32 0.41 0.44 0.36 0.36 0.39 0.36 0.41 0.38 0.38 0.37 0.37 0.42 0.47 0.49 0.50 0.54 0.62 0.72 0.81 0.83 0.85 0.88 0.95
1.01 0.93 0.79 0.57 0.52 0.57 0.71 0.58 0.45 0.31 0.28 0.30 0.35 0.41 0.41 0.43 0.44 0.42 0.46 0.60 0.73 0.81 0.87 1.00 1.08 1.09 1.03
1.17 0.92 0.58 0.52 0.53 0.66 0.87 0.97 0.80 0.33 0.31 0.41 0.46 0.53 0.49 0.50 0.57 0.55 0.56 0.60 0.66 0.76 0.86 0.93 0.95 0.99 1.08
0.95 0.75 0.66 0.59 0.85 1.06 1.02 1.06 0.86 0.44 0.49 0.60 0.47 0.48 0.47 0.54 0.65 0.55 0.56 0.56 0.60 0.66 0.71 0.75 0.74 0.80 0.88
1.23 1.12 1.13 1.19 1.41 1.65 1.57 1.47 1.13 0.74 0.65 0.81 0.40 0.42 0.42 0.50 0.68 0.57 0.50 0.52 0.57 0.60 0.62 0.65 0.72 0.77 0.74
1.45 1.55 1.50 1.37 1.33 1.59 1.73 1.59 1.34 0.72 0.56 0.76 0.56 0.51 0.51 0.47 0.50 0.59 0.53 0.56 0.65 0.69 0.68 0.73 0.77 0.79 0.78
1.01 1.04 0.96 0.93 1.19 1.16 1.54 2.21 1.61 1.29 0.63 1.09 0.82 0.71 1.04 0.44 0.42 0.57 0.56 0.53 0.54 0.50 0.50 0.54 0.62 0.67 0.69
0.94 0.93 0.89 0.83 0.85 1.05 1.45 2.44 2.66 1.96 0.93 1.95 1.73 0.81 1.21 0.72 0.48 0.53 0.46 0.53 0.65 0.62 0.61 0.58 0.56 0.63 0.77
0.88 0.92 0.87 0.86 0.94 1.07 1.20 1.43 1.68 1.98 1.23 1.61 2.36 1.22 1.52 1.16 0.76 0.67 0.64 0.63 0.74 0.73 0.68 0.81 1.03 1.07 1.06
1.23 1.18 1.11 1.16 1.19 1.13 1.06 0.98 1.03 1.11 1.29 1.29 1.63 1.46 1.59 1.50 1.08 0.74 0.89 0.91 0.98 1.08 0.95 0.81 0.76 0.77 0.97
1.18 1.13 1.22 1.24 1.16 1.21 1.42 1.27 1.35 1.15 0.98 0.91 1.08 1.31 1.32 0.93 1.16 1.01 0.84 1.30 1.28 1.36 1.36 0.96 0.84 0.73 0.61
0.92 1.00 1.14 1.28 1.30 1.37 1.65 1.59 1.44 1.12 0.93 0.78 0.73 0.75 0.84 0.94 1.01 0.94 1.11 1.06 1.27 1.66 1.54 1.24 1.13 0.95 0.77
0.92 1.03 1.26 1.36 1.53 1.62 1.67 1.50 1.32 1.07 0.98 0.87 0.83 0.84 0.84 0.80 1.03 1.27 1.14 1.20 1.46 1.64 1.68 1.17 1.15 1.20 1.00
1.48 1.41 1.42 1.53 1.68 1.68 1.46 1.24 1.04 0.84 0.69 0.66 0.88 1.17 1.33 0.85 0.73 1.12 1.61 1.48 1.26 1.36 1.38 1.08 1.12 1.22 1.02

GFSFLT2_prec_precacc_165.txt.gz
Total_Precipitation_Accumulation
0.58 0.48 0.36 0.26 0.17 0.15 0.11 0.07 0.06 0.08 0.10 0.12 0.16 0.18 0.18 0.18 0.23 0.28 0.35 0.43 0.54 0.65 0.80 0.99 1.22 1.25 1.26
0.40 0.34 0.26 0.22 0.19 0.21 0.18 0.18 0.17 0.16 0.17 0.16 0.19 0.23 0.27 0.28 0.30 0.33 0.36 0.41 0.42 0.53 0.63 0.79 0.90 1.00 1.15
0.63 0.46 0.33 0.27 0.30 0.33 0.30 0.27 0.24 0.30 0.34 0.32 0.33 0.38 0.41 0.41 0.41 0.49 0.59 0.64 0.66 0.62 0.64 0.77 0.91 0.98 1.03
0.78 0.62 0.44 0.33 0.41 0.44 0.36 0.36 0.39 0.37 0.41 0.38 0.38 0.37 0.37 0.42 0.47 0.49 0.50 0.54 0.62 0.73 0.82 0.83 0.86 0.88 0.96
1.03 0.94 0.80 0.57 0.52 0.57 0.71 0.59 0.45 0.31 0.28 0.30 0.35 0.41 0.41 0.43 0.44 0.42 0.46 0.60 0.73 0.82 0.88 1.01 1.10 1.13 1.08
1.18 0.93 0.59 0.53 0.54 0.66 0.88 0.98 0.81 0.33 0.32 0.41 0.46 0.53 0.49 0.50 0.57 0.55 0.56 0.60 0.66 0.76 0.88 0.97 1.01 1.04 1.13
0.96 0.75 0.66 0.60 0.85 1.06 1.02 1.06 0.86 0.44 0.49 0.60 0.47 0.48 0.47 0.54 0.65 0.55 0.56 0.56 0.60 0.67 0.72 0.75 0.75 0.82 0.89
1.23 1.12 1.13 1.19 1.41 1.65 1.57 1.47 1.13 0.75 0.66 0.81 0.40 0.42 0.42 0.50 0.68 0.57 0.50 0.52 0.58 0.61 0.62 0.66 0.73 0.78 0.75
1.46 1.55 1.50 1.37 1.33 1.59 1.73 1.60 1.35 0.73 0.57 0.78 0.56 0.52 0.52 0.47 0.51 0.60 0.54 0.57 0.66 0.69 0.69 0.74 0.77 0.79 0.78
1.01 1.04 0.97 0.94 1.20 1.17 1.55 2.23 1.63 1.31 0.65 1.11 0.83 0.72 1.04 0.44 0.42 0.57 0.56 0.54 0.54 0.50 0.50 0.54 0.62 0.67 0.69
0.94 0.93 0.90 0.85 0.87 1.07 1.48 2.47 2.68 1.99 0.96 1.97 1.74 0.82 1.22 0.72 0.48 0.54 0.47 0.53 0.65 0.62 0.61 0.58 0.56 0.63 0.77
0.91 0.95 0.91 0.90 0.98 1.10 1.24 1.47 1.72 2.03 1.30 1.68 2.41 1.26 1.54 1.17 0.76 0.67 0.65 0.63 0.74 0.73 0.68 0.81 1.03 1.07 1.06
1.28 1.25 1.23 1.31 1.35 1.28 1.18 1.12 1.17 1.21 1.35 1.35 1.70 1.51 1.63 1.54 1.10 0.74 0.89 0.91 0.98 1.08 0.95 0.81 0.76 0.77 0.97
1.23 1.19 1.28 1.29 1.20 1.23 1.43 1.28 1.36 1.16 0.98 0.91 1.08 1.31 1.32 0.93 1.16 1.01 0.84 1.30 1.28 1.36 1.36 0.96 0.84 0.73 0.61
0.92 1.00 1.14 1.28 1.30 1.37 1.65 1.59 1.44 1.12 0.93 0.78 0.73 0.75 0.84 0.94 1.01 0.94 1.11 1.06 1.27 1.66 1.54 1.24 1.13 0.95 0.77
0.92 1.03 1.26 1.36 1.53 1.62 1.67 1.50 1.32 1.07 0.98 0.87 0.83 0.84 0.84 0.80 1.03 1.27 1.14 1.20 1.46 1.64 1.68 1.17 1.15 1.20 1.00
1.48 1.41 1.43 1.53 1.68 1.68 1.46 1.24 1.04 0.84 0.69 0.66 0.88 1.17 1.33 0.85 0.73 1.12 1.61 1.48 1.26 1.36 1.38 1.08 1.12 1.22 1.02

GFSFLT2_prec_precacc_168.txt.gz
Total_Precipitation_Accumulation
0.59 0.51 0.42 0.33 0.23 0.21 0.16 0.10 0.06 0.09 0.11 0.13 0.16 0.18 0.18 0.18 0.23 0.28 0.35 0.44 0.54 0.66 0.83 1.04 1.27 1.31 1.32
0.40 0.35 0.28 0.24 0.23 0.25 0.21 0.21 0.19 0.18 0.21 0.18 0.20 0.24 0.27 0.28 0.30 0.33 0.36 0.41 0.42 0.53 0.63 0.79 0.91 1.02 1.18
0.67 0.50 0.36 0.33 0.35 0.38 0.35 0.29 0.24 0.32 0.38 0.35 0.37 0.40 0.42 0.41 0.41 0.49 0.59 0.64 0.66 0.62 0.64 0.77 0.91 0.99 1.04
0.83 0.68 0.51 0.41 0.50 0.47 0.41 0.39 0.41 0.37 0.42 0.39 0.39 0.38 0.38 0.43 0.47 0.49 0.50 0.54 0.62 0.73 0.82 0.83 0.86 0.88 0.97
1.11 1.03 0.89 0.65 0.56 0.61 0.72 0.59 0.46 0.32 0.28 0.30 0.35 0.41 0.41 0.43 0.44 0.42 0.46 0.60 0.73 0.82 0.88 1.01 1.10 1.13 1.08
1.26 0.99 0.64 0.59 0.57 0.69 0.88 0.99 0.81 0.33 0.32 0.41 0.46 0.53 0.49 0.50 0.57 0.55 0.56 0.60 0.67 0.77 0.89 0.98 1.01 1.04 1.13
1.02 0.86 0.75 0.65 0.91 1.10 1.04 1.09 0.88 0.47 0.50 0.61 0.47 0.48 0.47 0.55 0.67 0.56 0.56 0.56 0.60 0.67 0.72 0.76 0.76 0.82 0.89
1.24 1.13 1.14 1.20 1.44 1.67 1.60 1.50 1.19 0.79 0.67 0.83 0.42 0.44 0.44 0.50 0.69 0.59 0.52 0.54 0.58 0.61 0.63 0.67 0.73 0.79 0.76
1.47 1.56 1.51 1.38 1.34 1.60 1.74 1.61 1.36 0.74 0.57 0.78 0.57 0.52 0.52 0.47 0.51 0.61 0.55 0.58 0.68 0.71 0.70 0.74 0.77 0.80 0.78
1.01 1.05 0.97 0.94 1.20 1.17 1.55 2.23 1.64 1.33 0.65 1.12 0.84 0.73 1.06 0.45 0.42 0.58 0.57 0.55 0.55 0.52 0.52 0.55 0.62 0.68 0.69
0.94 0.93 0.90 0.85 0.87 1.07 1.48 2.48 2.69 2.00 1.00 1.99 1.76 0.84 1.24 0.73 0.48 0.54 0.47 0.54 0.65 0.63 0.61 0.59 0.57 0.63 0.77
0.91 0.96 0.92 0.91 0.99 1.12 1.26 1.49 1.74 2.05 1.33 1.72 2.44 1.29 1.56 1.18 0.76 0.67 0.65 0.63 0.74 0.73 0.68 0.81 1.03 1.07 1.06
1.29 1.27 1.24 1.32 1.36 1.30 1.22 1.19 1.25 1.28 1.39 1.37 1.72 1.56 1.69 1.58 1.14 0.77 0.91 0.92 0.98 1.08 0.95 0.81 0.76 0.77 0.97
1.25 1.21 1.29 1.30 1.20 1.24 1.44 1.29 1.38 1.19 1.02 0.94 1.09 1.31 1.33 0.96 1.22 1.06 0.89 1.32 1.28 1.36 1.36 0.96 0.84 0.73 0.61
0.92 1.00 1.14 1.28 1.30 1.37 1.65 1.59 1.44 1.12 0.93 0.78 0.73 0.75 0.84 0.94 1.01 0.94 1.11 1.06 1.27 1.66 1.54 1.24 1.13 0.95 0.77
0.93 1.03 1.26 1.37 1.53 1.62 1.68 1.50 1.32 1.07 0.98 0.87 0.83 0.84 0.84 0.80 1.03 1.27 1.14 1.20 1.46 1.64 1.68 1.17 1.15 1.20 1.00
1.48 1.42 1.43 1.53 1.68 1.68 1.46 1.24 1.04 0.84 0.70 0.66 0.88 1.17 1.33 0.85 0.73 1.12 1.61 1.49 1.27 1.37 1.38 1.08 1.12 1.22 1.02